GEFSSGP_prec_meanprecacc_180.txt.gz
Total_Precipitation_Accumulation
0.00 0.00 0.00 0.00 0.00 0.00 0.02 0.09 0.15 0.23 0.30 0.29 0.28 0.35 0.40 0.40 0.68 1.30 0.83 0.43 0.30 0.14 0.10 0.08 0.08 0.07 0.07 0.07 0.10 0.11 0.11 0.11 0.10 0.09 0.08 0.08 0.08 0.08 0.08 0.08 0.09 0.13 0.16 0.15 0.14 0.13 0.13 0.11 0.09
0.00 0.00 0.00 0.00 0.00 0.01 0.03 0.09 0.19 0.26 0.30 0.25 0.27 0.31 0.35 0.41 0.42 0.42 0.42 0.33 0.25 0.16 0.13 0.09 0.08 0.07 0.07 0.07 0.09 0.11 0.11 0.10 0.10 0.09 0.08 0.08 0.08 0.09 0.10 0.11 0.13 0.17 0.20 0.19 0.15 0.12 0.09 0.08 0.08
0.00 0.00 0.00 0.00 0.01 0.01 0.06 0.14 0.21 0.27 0.32 0.31 0.38 0.48 0.53 0.48 0.45 0.36 0.30 0.23 0.18 0.14 0.13 0.12 0.10 0.08 0.08 0.07 0.08 0.11 0.11 0.10 0.10 0.10 0.10 0.10 0.10 0.10 0.12 0.17 0.20 0.21 0.22 0.23 0.20 0.15 0.11 0.08 0.08
0.00 0.00 0.00 0.00 0.01 0.01 0.06 0.16 0.25 0.31 0.35 0.36 0.39 0.61 0.66 0.45 0.46 0.36 0.30 0.22 0.15 0.13 0.11 0.10 0.11 0.11 0.10 0.10 0.11 0.12 0.13 0.12 0.13 0.13 0.13 0.13 0.13 0.14 0.17 0.25 0.31 0.29 0.26 0.29 0.27 0.23 0.16 0.11 0.09
0.00 0.00 0.00 0.00 0.01 0.02 0.06 0.14 0.24 0.31 0.37 0.36 0.37 0.62 0.81 0.67 0.54 0.45 0.32 0.20 0.15 0.17 0.17 0.13 0.14 0.16 0.15 0.15 0.15 0.17 0.17 0.19 0.21 0.20 0.18 0.18 0.18 0.19 0.25 0.32 0.35 0.33 0.32 0.32 0.28 0.21 0.14 0.12 0.13
0.00 0.00 0.00 0.00 0.01 0.03 0.06 0.08 0.20 0.32 0.37 0.41 0.44 0.72 1.09 1.05 0.67 0.43 0.36 0.31 0.23 0.22 0.18 0.15 0.17 0.20 0.22 0.23 0.24 0.23 0.24 0.24 0.25 0.24 0.24 0.21 0.20 0.23 0.29 0.34 0.36 0.36 0.32 0.27 0.22 0.19 0.16 0.17 0.18
0.00 0.00 0.00 0.00 0.02 0.07 0.10 0.12 0.19 0.29 0.34 0.40 0.48 0.80 1.10 1.07 0.80 0.59 0.53 0.44 0.33 0.30 0.30 0.29 0.30 0.29 0.31 0.34 0.35 0.34 0.33 0.31 0.28 0.26 0.24 0.22 0.23 0.28 0.32 0.38 0.42 0.40 0.31 0.25 0.23 0.21 0.18 0.18 0.18
0.00 0.00 0.00 0.00 0.02 0.09 0.14 0.17 0.20 0.23 0.41 0.46 0.48 0.80 1.24 1.29 1.02 0.94 0.90 0.79 0.68 0.64 0.64 0.63 0.59 0.53 0.45 0.41 0.42 0.43 0.42 0.40 0.35 0.29 0.25 0.27 0.31 0.36 0.42 0.40 0.42 0.40 0.34 0.30 0.28 0.24 0.20 0.20 0.20
0.00 0.00 0.00 0.01 0.03 0.08 0.16 0.22 0.20 0.23 0.35 0.59 0.58 0.71 1.09 1.26 1.20 1.19 1.18 1.08 1.15 1.18 1.15 1.00 0.88 0.76 0.78 0.72 0.54 0.55 0.54 0.51 0.45 0.41 0.36 0.39 0.48 0.59 0.66 0.57 0.59 0.52 0.44 0.40 0.40 0.35 0.32 0.29 0.26
0.00 0.00 0.01 0.01 0.02 0.07 0.14 0.20 0.18 0.26 0.35 0.68 0.75 0.81 1.03 1.25 1.50 1.53 1.39 1.27 1.37 1.54 1.39 1.19 1.18 1.14 1.07 0.94 0.86 0.84 0.73 0.69 0.63 0.71 0.61 0.68 0.97 1.08 0.97 0.94 0.80 0.74 0.67 0.60 0.60 0.55 0.46 0.40 0.40
0.00 0.00 0.01 0.03 0.05 0.08 0.15 0.21 0.24 0.30 0.53 0.83 1.03 1.21 1.25 1.44 1.63 1.72 1.66 1.57 1.65 1.62 1.39 1.34 1.45 1.41 1.43 1.41 1.34 1.22 1.15 1.10 0.98 1.07 1.04 1.11 1.12 1.08 1.13 1.18 1.06 0.99 0.94 0.96 0.97 0.77 0.66 0.67 0.71
0.00 0.01 0.02 0.06 0.10 0.13 0.18 0.23 0.30 0.35 0.60 0.92 1.04 1.35 1.58 1.74 1.77 1.85 1.95 1.89 2.04 1.95 1.69 1.54 1.43 1.52 1.69 1.66 1.62 1.60 1.57 1.56 1.47 1.44 1.31 1.40 1.46 1.50 1.47 1.54 1.54 1.57 1.51 1.46 1.37 1.23 1.10 1.03 1.02
0.01 0.01 0.03 0.07 0.11 0.12 0.15 0.23 0.26 0.30 0.51 0.70 0.88 1.16 1.26 1.48 1.79 2.26 2.28 2.34 2.46 2.40 2.18 1.89 1.81 1.79 1.80 1.87 1.89 1.65 1.70 1.76 1.89 1.85 1.65 1.67 1.67 1.73 1.90 1.93 2.03 1.96 2.08 1.99 1.80 1.57 1.47 1.38 1.18
0.02 0.02 0.04 0.08 0.11 0.15 0.19 0.25 0.25 0.35 0.50 0.60 0.69 0.85 1.16 1.28 1.49 2.00 2.43 2.56 2.56 2.57 2.45 2.23 2.05 2.01 1.90 2.07 2.23 2.09 1.93 1.95 1.97 2.05 1.93 1.94 1.99 2.07 2.16 2.22 2.29 2.16 2.16 2.18 2.07 1.82 1.68 1.59 1.44
0.02 0.04 0.08 0.10 0.10 0.12 0.17 0.30 0.32 0.31 0.46 0.64 0.71 0.78 1.09 1.42 1.57 1.98 2.40 2.64 2.81 2.71 2.48 2.46 2.31 2.41 2.46 2.60 2.61 2.61 2.53 2.51 2.45 2.40 2.41 2.35 2.35 2.42 2.41 2.58 2.61 2.47 2.42 2.39 2.32 2.19 1.94 1.85 1.80
0.03 0.07 0.11 0.12 0.10 0.08 0.13 0.34 0.42 0.38 0.52 0.63 0.77 0.86 1.09 1.42 1.72 1.98 2.26 2.40 2.66 2.65 2.65 2.67 2.56 2.63 2.77 2.71 2.60 2.64 2.85 2.86 2.80 2.75 2.79 2.70 2.71 2.77 2.90 2.85 2.70 2.58 2.53 2.54 2.65 2.51 2.25 2.17 2.21
0.03 0.07 0.11 0.12 0.10 0.12 0.15 0.33 0.41 0.41 0.57 0.70 0.76 0.88 0.99 1.15 1.45 1.85 2.24 2.44 2.56 2.61 2.51 2.59 2.72 2.63 2.77 2.80 2.76 2.81 3.03 3.16 3.20 3.19 3.08 3.03 3.07 3.08 3.22 3.19 2.98 2.77 2.69 2.71 2.58 2.59 2.50 2.53 2.49
0.02 0.04 0.05 0.07 0.09 0.13 0.19 0.34 0.47 0.50 0.66 0.73 0.85 0.84 0.95 1.15 1.48 1.82 2.27 2.50 2.49 2.57 2.57 2.56 2.79 2.75 2.89 2.99 2.86 2.92 2.95 3.04 3.17 3.30 3.35 3.47 3.51 3.50 3.52 3.43 3.26 3.10 2.97 2.91 2.81 2.76 2.73 2.60 2.47
0.02 0.03 0.04 0.06 0.08 0.16 0.26 0.41 0.57 0.65 0.73 0.81 0.92 0.94 1.17 1.24 1.44 1.81 2.24 2.53 2.81 2.72 2.71 2.60 2.66 2.86 2.89 2.99 3.11 3.34 3.29 3.25 3.49 3.74 3.85 4.02 4.09 3.92 3.88 3.79 3.64 3.46 3.24 3.08 2.92 2.79 2.66 2.48 2.32
0.02 0.03 0.06 0.12 0.15 0.23 0.35 0.47 0.64 0.75 0.73 0.89 1.05 1.07 1.41 1.59 1.64 1.88 2.29 2.56 2.78 2.86 2.82 2.83 2.99 3.01 3.08 3.38 3.82 4.21 4.49 4.61 4.66 4.83 4.82 4.70 4.54 4.42 4.29 4.20 3.98 3.72 3.48 3.24 3.02 2.78 2.57 2.38 2.23
0.03 0.04 0.07 0.13 0.21 0.29 0.42 0.72 0.82 0.77 0.79 0.97 1.18 1.21 1.42 1.70 1.87 1.79 1.86 2.03 2.36 2.64 2.82 2.88 3.17 3.48 3.80 4.23 4.71 5.10 5.44 5.61 5.45 5.24 5.12 4.91 4.68 4.50 4.17 3.95 3.87 3.65 3.31 3.08 2.91 2.70 2.52 2.30 2.15
0.04 0.04 0.06 0.09 0.18 0.34 0.40 0.73 0.87 0.87 0.99 1.09 1.21 1.14 1.29 1.38 1.59 1.75 1.75 1.83 2.07 2.34 2.66 2.94 3.21 3.74 4.46 5.07 5.58 6.01 6.16 6.11 5.94 5.65 5.26 4.83 4.47 4.15 3.87 3.61 3.33 3.10 2.83 2.59 2.44 2.34 2.28 2.20 2.08
0.02 0.03 0.05 0.09 0.12 0.25 0.31 0.59 0.88 0.95 1.03 1.15 1.32 1.21 1.19 1.25 1.30 1.43 1.54 1.66 1.89 2.14 2.45 2.80 3.16 3.79 4.44 5.05 5.60 5.99 6.15 6.03 5.73 5.27 4.77 4.27 3.80 3.42 3.12 2.87 2.59 2.34 2.15 1.98 1.80 1.75 1.87 1.98 1.98
0.01 0.03 0.06 0.10 0.15 0.30 0.29 0.47 0.95 1.16 1.24 1.40 1.40 1.45 1.52 1.40 1.31 1.31 1.32 1.39 1.53 1.78 2.09 2.50 2.94 3.43 3.91 4.28 4.78 5.08 5.24 5.17 4.83 4.34 3.73 3.28 2.95 2.65 2.38 2.13 1.93 1.74 1.56 1.46 1.39 1.38 1.44 1.57 1.67
0.01 0.04 0.14 0.24 0.27 0.33 0.28 0.50 1.04 1.31 1.33 1.43 1.41 1.52 1.61 1.50 1.39 1.31 1.27 1.26 1.34 1.55 1.87 2.13 2.38 2.77 3.03 3.32 3.69 3.90 3.90 3.74 3.51 3.26 2.96 2.54 2.16 1.87 1.66 1.47 1.35 1.22 1.13 1.09 1.06 1.09 1.17 1.22 1.28
0.01 0.03 0.19 0.39 0.37 0.39 0.49 0.86 1.30 1.33 1.23 1.25 1.30 1.30 1.33 1.22 1.22 1.26 1.28 1.26 1.34 1.38 1.53 1.71 1.83 2.01 2.14 2.24 2.42 2.44 2.40 2.31 2.28 2.12 1.90 1.65 1.38 1.12 0.99 0.92 0.85 0.81 0.81 0.78 0.78 0.82 0.90 0.96 0.99
0.01 0.04 0.10 0.18 0.25 0.45 0.82 1.30 1.63 1.48 1.40 1.31 1.16 1.02 1.11 1.10 1.08 1.14 1.19 1.23 1.27 1.27 1.26 1.27 1.28 1.31 1.30 1.31 1.41 1.46 1.44 1.40 1.35 1.24 1.11 0.99 0.88 0.77 0.69 0.65 0.63 0.61 0.61 0.61 0.60 0.60 0.61 0.69 0.78
0.03 0.06 0.08 0.16 0.43 0.62 0.89 1.34 1.84 1.90 1.85 1.77 1.47 1.16 1.14 1.15 1.18 1.05 0.97 1.02 1.10 1.07 1.04 0.99 0.99 0.97 0.89 0.81 0.83 0.87 0.90 0.86 0.81 0.76 0.72 0.67 0.62 0.57 0.52 0.46 0.43 0.39 0.39 0.42 0.48 0.49 0.46 0.50 0.55
0.06 0.07 0.10 0.18 0.32 0.62 1.08 1.62 1.72 1.97 2.02 1.87 1.59 1.30 1.26 1.22 1.18 1.12 1.12 1.05 1.06 1.04 1.00 0.94 0.91 0.87 0.80 0.74 0.72 0.67 0.61 0.58 0.53 0.49 0.46 0.43 0.40 0.38 0.36 0.33 0.30 0.28 0.28 0.32 0.39 0.42 0.42 0.44 0.45
0.10 0.10 0.12 0.26 0.31 0.44 0.95 1.72 1.79 2.01 2.10 1.94 1.89 1.67 1.46 1.37 1.27 1.22 1.21 1.10 1.02 0.95 0.93 0.91 0.83 0.75 0.70 0.67 0.62 0.57 0.50 0.46 0.43 0.40 0.35 0.31 0.30 0.28 0.27 0.26 0.25 0.23 0.25 0.30 0.34 0.37 0.37 0.40 0.43

GEFSSGP_prec_meanprecacc_186.txt.gz
Total_Precipitation_Accumulation
0.00 0.00 0.00 0.00 0.00 0.01 0.03 0.09 0.15 0.23 0.31 0.30 0.29 0.36 0.41 0.42 0.70 1.34 0.85 0.43 0.30 0.15 0.11 0.09 0.09 0.09 0.08 0.08 0.10 0.12 0.12 0.11 0.10 0.09 0.08 0.08 0.08 0.09 0.09 0.09 0.10 0.14 0.17 0.16 0.14 0.14 0.13 0.11 0.10
0.00 0.00 0.00 0.00 0.00 0.01 0.03 0.09 0.19 0.27 0.31 0.26 0.28 0.31 0.36 0.43 0.43 0.43 0.42 0.34 0.25 0.17 0.14 0.11 0.10 0.09 0.08 0.08 0.09 0.12 0.11 0.11 0.10 0.09 0.08 0.08 0.08 0.09 0.10 0.11 0.13 0.18 0.21 0.20 0.15 0.12 0.10 0.09 0.08
0.00 0.00 0.00 0.00 0.01 0.01 0.07 0.14 0.22 0.28 0.33 0.33 0.40 0.49 0.54 0.50 0.47 0.37 0.31 0.24 0.19 0.15 0.14 0.15 0.13 0.11 0.10 0.09 0.10 0.11 0.12 0.11 0.11 0.11 0.11 0.11 0.10 0.10 0.13 0.17 0.20 0.22 0.23 0.24 0.21 0.16 0.12 0.09 0.09
0.00 0.00 0.00 0.00 0.01 0.01 0.06 0.16 0.25 0.31 0.37 0.37 0.41 0.62 0.68 0.47 0.48 0.38 0.32 0.23 0.17 0.16 0.15 0.14 0.15 0.14 0.14 0.13 0.13 0.14 0.14 0.13 0.14 0.14 0.14 0.14 0.14 0.14 0.18 0.26 0.32 0.30 0.28 0.30 0.29 0.24 0.18 0.12 0.11
0.00 0.00 0.00 0.00 0.01 0.02 0.06 0.14 0.24 0.31 0.38 0.37 0.40 0.65 0.84 0.70 0.56 0.47 0.35 0.22 0.18 0.20 0.21 0.18 0.20 0.21 0.19 0.19 0.17 0.19 0.18 0.20 0.22 0.21 0.20 0.19 0.19 0.20 0.26 0.33 0.36 0.35 0.34 0.34 0.29 0.22 0.15 0.13 0.14
0.00 0.00 0.00 0.00 0.01 0.03 0.06 0.09 0.20 0.32 0.37 0.42 0.46 0.75 1.16 1.12 0.71 0.46 0.39 0.33 0.26 0.26 0.22 0.21 0.23 0.25 0.26 0.27 0.27 0.26 0.26 0.26 0.26 0.26 0.25 0.23 0.22 0.25 0.31 0.36 0.38 0.37 0.34 0.28 0.24 0.21 0.18 0.18 0.19
0.00 0.00 0.00 0.00 0.02 0.07 0.10 0.12 0.19 0.29 0.35 0.41 0.49 0.82 1.14 1.11 0.84 0.62 0.57 0.47 0.37 0.34 0.33 0.32 0.34 0.34 0.35 0.38 0.37 0.35 0.34 0.33 0.30 0.28 0.25 0.23 0.24 0.29 0.34 0.39 0.44 0.42 0.33 0.27 0.25 0.24 0.21 0.21 0.21
0.00 0.00 0.00 0.01 0.02 0.09 0.14 0.17 0.21 0.24 0.42 0.46 0.48 0.82 1.26 1.31 1.05 0.99 0.98 0.84 0.71 0.67 0.68 0.67 0.64 0.57 0.48 0.43 0.43 0.44 0.44 0.40 0.36 0.30 0.26 0.27 0.32 0.37 0.43 0.41 0.43 0.41 0.36 0.32 0.30 0.26 0.23 0.22 0.22
0.00 0.00 0.00 0.01 0.03 0.08 0.16 0.22 0.20 0.23 0.36 0.60 0.59 0.73 1.11 1.28 1.25 1.28 1.28 1.13 1.18 1.20 1.18 1.03 0.91 0.78 0.80 0.73 0.55 0.56 0.54 0.52 0.46 0.42 0.37 0.40 0.50 0.61 0.67 0.58 0.60 0.53 0.47 0.43 0.42 0.38 0.35 0.31 0.29
0.00 0.00 0.01 0.01 0.02 0.07 0.14 0.20 0.18 0.26 0.37 0.69 0.76 0.82 1.05 1.29 1.53 1.58 1.44 1.32 1.41 1.56 1.41 1.21 1.21 1.16 1.08 0.95 0.88 0.86 0.74 0.70 0.63 0.71 0.62 0.70 0.99 1.10 0.99 0.95 0.81 0.76 0.70 0.63 0.62 0.58 0.48 0.42 0.44
0.00 0.01 0.01 0.03 0.05 0.09 0.15 0.22 0.25 0.31 0.54 0.83 1.04 1.22 1.26 1.47 1.66 1.75 1.70 1.62 1.69 1.65 1.42 1.38 1.48 1.43 1.45 1.43 1.36 1.23 1.17 1.11 0.98 1.08 1.05 1.14 1.14 1.10 1.14 1.21 1.09 1.02 0.97 0.99 1.00 0.80 0.67 0.70 0.75
0.00 0.01 0.02 0.06 0.11 0.14 0.19 0.24 0.32 0.37 0.61 0.93 1.06 1.37 1.59 1.77 1.80 1.88 2.00 1.93 2.07 1.97 1.71 1.56 1.45 1.54 1.71 1.68 1.63 1.62 1.58 1.56 1.48 1.45 1.32 1.42 1.48 1.52 1.49 1.58 1.58 1.61 1.56 1.51 1.42 1.27 1.13 1.05 1.04
0.01 0.02 0.04 0.07 0.12 0.13 0.16 0.24 0.27 0.32 0.52 0.73 0.91 1.18 1.27 1.51 1.83 2.29 2.31 2.37 2.47 2.42 2.19 1.90 1.83 1.80 1.82 1.89 1.90 1.66 1.72 1.78 1.91 1.88 1.67 1.70 1.71 1.77 1.94 1.96 2.07 2.00 2.12 2.04 1.84 1.60 1.50 1.41 1.20
0.02 0.03 0.05 0.08 0.12 0.15 0.20 0.26 0.26 0.36 0.52 0.62 0.71 0.88 1.19 1.31 1.53 2.03 2.45 2.58 2.58 2.59 2.46 2.24 2.07 2.03 1.92 2.09 2.26 2.11 1.95 1.97 1.99 2.07 1.96 1.97 2.03 2.13 2.21 2.25 2.32 2.20 2.20 2.22 2.11 1.84 1.70 1.60 1.46
0.02 0.05 0.08 0.11 0.11 0.13 0.18 0.32 0.33 0.33 0.48 0.67 0.73 0.81 1.12 1.46 1.61 2.02 2.43 2.67 2.83 2.74 2.50 2.49 2.33 2.44 2.48 2.62 2.64 2.64 2.55 2.53 2.48 2.42 2.44 2.38 2.40 2.46 2.46 2.62 2.65 2.51 2.45 2.42 2.35 2.21 1.96 1.86 1.81
0.03 0.07 0.12 0.13 0.11 0.09 0.14 0.36 0.45 0.42 0.54 0.66 0.80 0.89 1.12 1.45 1.75 2.01 2.29 2.42 2.69 2.69 2.69 2.73 2.60 2.66 2.80 2.75 2.64 2.68 2.88 2.89 2.83 2.78 2.84 2.74 2.74 2.80 2.93 2.88 2.73 2.62 2.56 2.56 2.67 2.53 2.28 2.19 2.22
0.04 0.08 0.12 0.13 0.11 0.13 0.16 0.35 0.43 0.45 0.60 0.73 0.78 0.90 1.01 1.18 1.48 1.88 2.26 2.46 2.57 2.64 2.57 2.66 2.78 2.69 2.83 2.87 2.83 2.87 3.10 3.23 3.26 3.24 3.13 3.07 3.11 3.12 3.27 3.23 3.02 2.81 2.72 2.74 2.60 2.61 2.53 2.56 2.51
0.03 0.04 0.06 0.08 0.10 0.13 0.21 0.37 0.50 0.52 0.67 0.75 0.88 0.86 0.97 1.17 1.50 1.85 2.30 2.53 2.51 2.60 2.62 2.63 2.86 2.82 2.97 3.07 2.95 3.01 3.04 3.15 3.29 3.40 3.44 3.53 3.57 3.55 3.58 3.47 3.30 3.13 2.99 2.94 2.83 2.78 2.76 2.63 2.50
0.02 0.03 0.04 0.06 0.09 0.17 0.28 0.44 0.60 0.66 0.75 0.82 0.95 0.98 1.19 1.26 1.46 1.83 2.27 2.56 2.83 2.76 2.76 2.66 2.72 2.92 2.96 3.08 3.20 3.44 3.40 3.36 3.61 3.85 3.95 4.10 4.14 3.97 3.93 3.83 3.67 3.48 3.26 3.10 2.95 2.81 2.69 2.50 2.35
0.02 0.03 0.06 0.13 0.15 0.23 0.35 0.49 0.65 0.76 0.74 0.90 1.07 1.09 1.42 1.61 1.67 1.90 2.31 2.58 2.81 2.90 2.88 2.89 3.05 3.09 3.18 3.48 3.94 4.34 4.61 4.71 4.76 4.92 4.90 4.77 4.60 4.47 4.34 4.23 4.01 3.74 3.50 3.27 3.05 2.81 2.59 2.41 2.26
0.03 0.05 0.07 0.14 0.21 0.29 0.43 0.73 0.82 0.78 0.80 0.98 1.20 1.23 1.44 1.71 1.89 1.81 1.89 2.07 2.40 2.70 2.87 2.93 3.24 3.57 3.90 4.35 4.84 5.21 5.53 5.68 5.50 5.30 5.18 4.95 4.73 4.54 4.20 3.97 3.90 3.68 3.33 3.11 2.94 2.74 2.55 2.34 2.19
0.04 0.04 0.06 0.09 0.19 0.36 0.41 0.74 0.88 0.89 1.00 1.10 1.22 1.15 1.30 1.39 1.60 1.77 1.78 1.88 2.13 2.41 2.70 2.98 3.26 3.82 4.55 5.17 5.66 6.09 6.22 6.16 5.97 5.69 5.30 4.86 4.50 4.19 3.90 3.62 3.35 3.12 2.86 2.63 2.49 2.40 2.36 2.27 2.13
0.02 0.03 0.06 0.09 0.12 0.26 0.32 0.60 0.89 0.96 1.04 1.16 1.33 1.22 1.19 1.26 1.31 1.45 1.57 1.70 1.96 2.18 2.48 2.83 3.19 3.84 4.50 5.10 5.66 6.05 6.21 6.08 5.78 5.32 4.80 4.30 3.83 3.44 3.15 2.89 2.60 2.36 2.18 2.02 1.88 1.86 1.98 2.06 2.03
0.01 0.03 0.07 0.11 0.15 0.31 0.30 0.48 0.96 1.17 1.25 1.41 1.41 1.45 1.53 1.41 1.32 1.32 1.35 1.42 1.56 1.80 2.12 2.54 2.97 3.46 3.96 4.33 4.83 5.13 5.30 5.23 4.89 4.39 3.77 3.31 2.98 2.68 2.40 2.15 1.94 1.75 1.58 1.48 1.41 1.41 1.47 1.60 1.70
0.01 0.05 0.15 0.25 0.28 0.34 0.28 0.51 1.05 1.32 1.33 1.44 1.43 1.52 1.61 1.51 1.40 1.32 1.29 1.28 1.36 1.56 1.90 2.17 2.41 2.81 3.07 3.37 3.75 3.96 3.96 3.80 3.57 3.33 3.02 2.57 2.20 1.89 1.68 1.48 1.36 1.22 1.14 1.10 1.07 1.10 1.18 1.23 1.31
0.01 0.03 0.20 0.39 0.37 0.40 0.49 0.86 1.31 1.33 1.23 1.25 1.31 1.31 1.33 1.22 1.23 1.27 1.29 1.28 1.35 1.40 1.56 1.75 1.87 2.04 2.17 2.29 2.49 2.52 2.47 2.38 2.34 2.17 1.94 1.69 1.42 1.14 1.01 0.93 0.86 0.83 0.82 0.79 0.79 0.83 0.90 0.97 1.01
0.02 0.05 0.10 0.18 0.25 0.46 0.83 1.30 1.63 1.49 1.41 1.32 1.17 1.02 1.11 1.10 1.09 1.15 1.20 1.24 1.28 1.28 1.27 1.29 1.30 1.34 1.35 1.37 1.48 1.54 1.51 1.47 1.40 1.29 1.16 1.03 0.91 0.79 0.70 0.66 0.65 0.62 0.62 0.62 0.61 0.61 0.62 0.70 0.80
0.04 0.06 0.09 0.16 0.44 0.63 0.90 1.35 1.86 1.92 1.86 1.78 1.48 1.17 1.15 1.16 1.19 1.06 0.98 1.03 1.11 1.08 1.06 1.01 1.02 1.02 0.95 0.89 0.90 0.94 0.97 0.92 0.87 0.82 0.78 0.72 0.67 0.60 0.54 0.48 0.44 0.41 0.40 0.43 0.49 0.50 0.48 0.51 0.56
0.07 0.08 0.10 0.19 0.32 0.63 1.09 1.64 1.74 2.00 2.05 1.90 1.61 1.31 1.28 1.23 1.19 1.14 1.14 1.06 1.07 1.06 1.02 0.96 0.94 0.92 0.88 0.83 0.80 0.74 0.67 0.64 0.59 0.55 0.51 0.48 0.44 0.41 0.38 0.35 0.31 0.29 0.29 0.33 0.40 0.44 0.43 0.45 0.47
0.11 0.11 0.12 0.28 0.33 0.46 0.96 1.74 1.81 2.04 2.12 1.96 1.92 1.70 1.48 1.39 1.30 1.24 1.22 1.11 1.03 0.97 0.95 0.93 0.87 0.80 0.75 0.74 0.70 0.63 0.57 0.52 0.48 0.43 0.39 0.35 0.34 0.32 0.30 0.28 0.27 0.25 0.27 0.31 0.35 0.38 0.38 0.42 0.45

GEFSSGP_prec_meanprecacc_192.txt.gz
Total_Precipitation_Accumulation
0.00 0.00 0.00 0.01 0.01 0.01 0.03 0.10 0.18 0.25 0.32 0.30 0.30 0.38 0.44 0.44 0.73 1.41 0.88 0.46 0.31 0.17 0.13 0.10 0.10 0.09 0.09 0.08 0.11 0.12 0.12 0.12 0.11 0.10 0.08 0.09 0.09 0.09 0.09 0.09 0.10 0.14 0.17 0.16 0.15 0.14 0.13 0.12 0.10
0.00 0.00 0.00 0.01 0.01 0.02 0.04 0.09 0.20 0.29 0.32 0.26 0.28 0.32 0.37 0.45 0.44 0.44 0.43 0.35 0.27 0.19 0.17 0.13 0.11 0.11 0.09 0.09 0.11 0.13 0.13 0.11 0.10 0.09 0.09 0.09 0.09 0.09 0.10 0.11 0.13 0.18 0.21 0.20 0.16 0.13 0.10 0.09 0.09
0.00 0.00 0.01 0.00 0.01 0.01 0.07 0.15 0.24 0.29 0.34 0.33 0.41 0.50 0.56 0.52 0.49 0.40 0.33 0.25 0.21 0.18 0.16 0.16 0.14 0.12 0.12 0.11 0.13 0.14 0.14 0.12 0.11 0.11 0.11 0.11 0.11 0.11 0.13 0.17 0.21 0.22 0.23 0.24 0.22 0.16 0.12 0.10 0.09
0.00 0.00 0.00 0.01 0.01 0.01 0.07 0.19 0.29 0.32 0.37 0.38 0.41 0.63 0.69 0.48 0.50 0.40 0.34 0.24 0.19 0.19 0.16 0.15 0.16 0.16 0.16 0.16 0.17 0.18 0.17 0.15 0.15 0.14 0.14 0.14 0.14 0.14 0.18 0.26 0.32 0.30 0.28 0.30 0.29 0.25 0.18 0.12 0.11
0.00 0.00 0.00 0.00 0.01 0.03 0.06 0.15 0.26 0.32 0.38 0.37 0.40 0.66 0.85 0.71 0.56 0.47 0.35 0.22 0.19 0.24 0.24 0.19 0.21 0.23 0.22 0.22 0.21 0.22 0.20 0.22 0.23 0.22 0.20 0.20 0.19 0.21 0.26 0.34 0.37 0.36 0.34 0.35 0.30 0.23 0.16 0.13 0.14
0.00 0.01 0.01 0.00 0.01 0.04 0.07 0.09 0.20 0.33 0.39 0.43 0.46 0.76 1.17 1.13 0.73 0.48 0.41 0.35 0.28 0.27 0.24 0.22 0.24 0.27 0.28 0.28 0.29 0.28 0.28 0.28 0.28 0.27 0.27 0.24 0.24 0.27 0.32 0.36 0.38 0.38 0.34 0.29 0.25 0.22 0.19 0.19 0.19
0.00 0.00 0.01 0.01 0.03 0.07 0.11 0.13 0.20 0.30 0.36 0.42 0.49 0.83 1.15 1.12 0.86 0.65 0.61 0.51 0.40 0.36 0.36 0.36 0.37 0.37 0.40 0.42 0.41 0.38 0.36 0.35 0.32 0.29 0.26 0.23 0.25 0.30 0.34 0.39 0.44 0.42 0.33 0.28 0.26 0.24 0.22 0.21 0.21
0.00 0.00 0.00 0.01 0.03 0.10 0.15 0.18 0.21 0.24 0.42 0.46 0.49 0.82 1.27 1.32 1.06 1.02 1.01 0.88 0.75 0.70 0.71 0.71 0.69 0.62 0.52 0.46 0.44 0.46 0.45 0.41 0.37 0.30 0.26 0.28 0.32 0.38 0.45 0.42 0.44 0.41 0.36 0.32 0.30 0.27 0.23 0.22 0.22
0.00 0.00 0.00 0.01 0.03 0.10 0.17 0.23 0.20 0.23 0.36 0.60 0.59 0.74 1.13 1.29 1.26 1.30 1.31 1.16 1.22 1.24 1.21 1.07 0.95 0.83 0.84 0.75 0.56 0.57 0.55 0.52 0.46 0.43 0.38 0.41 0.53 0.68 0.74 0.61 0.61 0.54 0.48 0.44 0.43 0.39 0.35 0.32 0.29
0.00 0.00 0.01 0.02 0.03 0.08 0.14 0.21 0.18 0.26 0.37 0.69 0.77 0.83 1.06 1.30 1.55 1.60 1.46 1.34 1.43 1.59 1.43 1.24 1.24 1.20 1.11 0.98 0.91 0.89 0.76 0.73 0.66 0.76 0.67 0.76 1.07 1.18 1.03 0.99 0.83 0.78 0.71 0.64 0.64 0.60 0.50 0.44 0.47
0.00 0.02 0.03 0.04 0.07 0.12 0.17 0.23 0.25 0.32 0.55 0.84 1.05 1.24 1.27 1.49 1.68 1.78 1.72 1.64 1.72 1.68 1.44 1.40 1.50 1.46 1.49 1.48 1.42 1.27 1.22 1.16 1.03 1.13 1.12 1.20 1.21 1.16 1.19 1.28 1.16 1.07 1.02 1.06 1.07 0.85 0.71 0.74 0.81
0.01 0.03 0.04 0.08 0.13 0.17 0.21 0.27 0.33 0.39 0.63 0.94 1.07 1.39 1.61 1.79 1.82 1.91 2.03 1.96 2.09 2.00 1.73 1.58 1.47 1.57 1.75 1.71 1.67 1.66 1.62 1.61 1.53 1.50 1.36 1.48 1.54 1.57 1.56 1.66 1.66 1.68 1.65 1.62 1.52 1.35 1.19 1.11 1.10
0.02 0.02 0.06 0.11 0.13 0.17 0.22 0.28 0.29 0.35 0.54 0.75 0.94 1.21 1.30 1.53 1.85 2.31 2.34 2.42 2.49 2.44 2.22 1.93 1.86 1.85 1.86 1.92 1.94 1.70 1.76 1.82 1.95 1.93 1.72 1.75 1.77 1.84 2.01 2.03 2.14 2.08 2.22 2.16 1.94 1.67 1.56 1.46 1.25
0.03 0.03 0.05 0.09 0.13 0.21 0.29 0.30 0.27 0.37 0.53 0.64 0.77 0.96 1.24 1.34 1.56 2.06 2.48 2.61 2.61 2.62 2.49 2.28 2.10 2.06 1.95 2.12 2.29 2.16 1.98 2.01 2.03 2.12 2.01 2.02 2.09 2.19 2.28 2.33 2.40 2.28 2.29 2.32 2.20 1.92 1.77 1.67 1.51
0.03 0.06 0.09 0.11 0.11 0.16 0.22 0.35 0.35 0.35 0.50 0.70 0.78 0.89 1.19 1.51 1.67 2.08 2.48 2.70 2.86 2.78 2.55 2.54 2.37 2.47 2.50 2.65 2.67 2.68 2.59 2.56 2.52 2.48 2.49 2.42 2.45 2.54 2.54 2.71 2.73 2.59 2.54 2.51 2.43 2.28 2.03 1.92 1.85
0.05 0.10 0.13 0.14 0.12 0.11 0.16 0.41 0.49 0.44 0.58 0.71 0.85 0.94 1.18 1.50 1.80 2.09 2.34 2.45 2.73 2.73 2.74 2.77 2.63 2.69 2.83 2.78 2.68 2.74 2.93 2.93 2.87 2.82 2.88 2.78 2.80 2.87 3.02 2.97 2.82 2.73 2.67 2.65 2.75 2.60 2.33 2.24 2.27
0.05 0.09 0.13 0.15 0.14 0.15 0.18 0.40 0.50 0.48 0.64 0.77 0.82 0.94 1.05 1.21 1.51 1.92 2.31 2.51 2.63 2.69 2.60 2.70 2.81 2.72 2.86 2.92 2.89 2.92 3.15 3.27 3.30 3.28 3.17 3.11 3.16 3.19 3.34 3.31 3.11 2.89 2.80 2.81 2.66 2.67 2.58 2.61 2.56
0.04 0.04 0.06 0.10 0.13 0.15 0.23 0.40 0.53 0.55 0.73 0.79 0.91 0.89 1.00 1.20 1.52 1.88 2.35 2.60 2.62 2.71 2.69 2.68 2.91 2.87 3.03 3.14 3.02 3.06 3.10 3.21 3.33 3.46 3.50 3.59 3.63 3.62 3.65 3.55 3.39 3.21 3.08 3.01 2.89 2.84 2.81 2.68 2.54
0.03 0.04 0.05 0.07 0.11 0.18 0.29 0.46 0.63 0.69 0.80 0.88 1.00 1.02 1.23 1.29 1.48 1.86 2.30 2.61 2.92 2.87 2.87 2.73 2.78 2.98 3.03 3.15 3.26 3.49 3.46 3.44 3.68 3.91 4.01 4.15 4.20 4.05 4.03 3.93 3.76 3.55 3.33 3.16 3.00 2.86 2.73 2.54 2.40
0.02 0.04 0.10 0.16 0.16 0.26 0.37 0.50 0.69 0.78 0.77 0.93 1.13 1.14 1.46 1.64 1.69 1.92 2.33 2.60 2.83 2.94 2.95 2.96 3.10 3.14 3.24 3.56 4.02 4.43 4.71 4.81 4.83 4.97 4.96 4.83 4.67 4.55 4.41 4.30 4.07 3.80 3.56 3.31 3.09 2.85 2.63 2.44 2.31
0.04 0.06 0.14 0.24 0.24 0.31 0.45 0.76 0.86 0.81 0.83 1.00 1.22 1.26 1.48 1.75 1.94 1.85 1.91 2.08 2.41 2.71 2.90 2.96 3.28 3.62 3.98 4.45 4.93 5.32 5.63 5.75 5.58 5.38 5.26 5.02 4.79 4.60 4.26 4.01 3.94 3.71 3.37 3.15 2.98 2.78 2.59 2.38 2.24
0.04 0.06 0.13 0.19 0.23 0.37 0.43 0.79 0.92 0.91 1.04 1.14 1.24 1.18 1.33 1.42 1.65 1.81 1.80 1.91 2.17 2.44 2.71 2.99 3.28 3.86 4.62 5.25 5.74 6.17 6.30 6.24 6.07 5.79 5.38 4.93 4.56 4.24 3.94 3.65 3.37 3.15 2.89 2.67 2.53 2.45 2.41 2.32 2.18
0.03 0.04 0.09 0.14 0.15 0.27 0.34 0.63 0.92 1.01 1.12 1.22 1.36 1.24 1.22 1.32 1.39 1.49 1.60 1.73 1.99 2.23 2.50 2.85 3.22 3.88 4.56 5.18 5.74 6.14 6.29 6.18 5.89 5.42 4.89 4.37 3.91 3.51 3.19 2.92 2.63 2.40 2.22 2.06 1.91 1.90 2.03 2.12 2.09
0.02 0.05 0.11 0.17 0.21 0.35 0.33 0.52 1.00 1.22 1.33 1.48 1.46 1.51 1.61 1.50 1.38 1.35 1.37 1.44 1.60 1.84 2.14 2.56 3.01 3.51 4.02 4.39 4.91 5.22 5.38 5.33 5.00 4.48 3.86 3.41 3.08 2.76 2.46 2.21 2.00 1.79 1.61 1.51 1.46 1.45 1.50 1.64 1.75
0.03 0.08 0.20 0.30 0.34 0.39 0.31 0.56 1.12 1.37 1.39 1.49 1.51 1.60 1.65 1.54 1.43 1.34 1.31 1.29 1.38 1.58 1.92 2.20 2.46 2.86 3.13 3.44 3.82 4.04 4.04 3.90 3.68 3.42 3.11 2.70 2.33 2.00 1.76 1.54 1.39 1.25 1.17 1.13 1.12 1.14 1.22 1.27 1.34
0.03 0.07 0.26 0.47 0.46 0.46 0.52 0.94 1.41 1.41 1.31 1.31 1.35 1.35 1.37 1.25 1.25 1.29 1.31 1.30 1.38 1.42 1.58 1.77 1.89 2.08 2.22 2.35 2.55 2.59 2.54 2.47 2.42 2.25 2.01 1.77 1.51 1.21 1.07 0.97 0.90 0.85 0.84 0.82 0.83 0.87 0.95 1.01 1.05
0.02 0.07 0.12 0.24 0.31 0.51 0.88 1.36 1.69 1.53 1.46 1.36 1.21 1.06 1.15 1.13 1.12 1.18 1.22 1.26 1.31 1.30 1.29 1.31 1.33 1.37 1.39 1.43 1.54 1.60 1.58 1.55 1.48 1.37 1.23 1.10 0.98 0.84 0.74 0.70 0.68 0.65 0.65 0.65 0.65 0.65 0.66 0.74 0.83
0.04 0.06 0.10 0.22 0.51 0.70 0.97 1.43 1.93 1.98 1.92 1.83 1.52 1.21 1.18 1.19 1.21 1.08 1.00 1.05 1.13 1.11 1.08 1.04 1.06 1.05 1.00 0.94 0.96 0.98 1.02 0.98 0.93 0.89 0.84 0.79 0.72 0.65 0.58 0.51 0.47 0.44 0.44 0.47 0.54 0.54 0.52 0.55 0.60
0.07 0.09 0.13 0.24 0.39 0.70 1.21 1.75 1.80 2.06 2.13 1.95 1.64 1.34 1.31 1.27 1.22 1.17 1.17 1.09 1.09 1.08 1.05 1.00 0.98 0.95 0.91 0.87 0.83 0.77 0.71 0.68 0.64 0.60 0.56 0.53 0.49 0.46 0.42 0.39 0.35 0.33 0.33 0.38 0.46 0.48 0.47 0.50 0.51
0.11 0.12 0.13 0.33 0.41 0.53 1.06 1.86 1.87 2.09 2.16 2.00 1.95 1.74 1.53 1.46 1.34 1.27 1.26 1.15 1.07 1.00 0.98 0.96 0.90 0.82 0.78 0.77 0.73 0.66 0.61 0.57 0.53 0.48 0.44 0.39 0.38 0.38 0.37 0.36 0.34 0.30 0.30 0.35 0.40 0.43 0.42 0.46 0.48

GEFSSGP_prec_meanprecacc_198.txt.gz
Total_Precipitation_Accumulation
0.00 0.00 0.01 0.02 0.03 0.03 0.05 0.11 0.20 0.29 0.37 0.37 0.39 0.46 0.48 0.48 0.79 1.48 0.93 0.52 0.35 0.20 0.14 0.11 0.10 0.09 0.09 0.08 0.11 0.12 0.12 0.12 0.11 0.10 0.08 0.09 0.09 0.09 0.09 0.09 0.10 0.14 0.17 0.16 0.15 0.14 0.13 0.12 0.10
0.00 0.00 0.01 0.02 0.03 0.03 0.05 0.11 0.22 0.34 0.39 0.34 0.36 0.38 0.40 0.47 0.46 0.48 0.48 0.40 0.31 0.22 0.19 0.14 0.12 0.11 0.09 0.09 0.11 0.13 0.13 0.11 0.10 0.09 0.09 0.09 0.09 0.09 0.10 0.11 0.13 0.18 0.21 0.20 0.16 0.13 0.10 0.09 0.09
0.00 0.01 0.01 0.01 0.01 0.02 0.09 0.18 0.27 0.37 0.43 0.39 0.46 0.54 0.58 0.56 0.52 0.42 0.36 0.28 0.25 0.20 0.17 0.17 0.15 0.13 0.12 0.11 0.13 0.14 0.14 0.12 0.11 0.11 0.12 0.12 0.11 0.11 0.13 0.17 0.21 0.22 0.23 0.24 0.22 0.16 0.12 0.10 0.10
0.00 0.01 0.01 0.01 0.01 0.01 0.08 0.20 0.31 0.36 0.45 0.44 0.45 0.67 0.72 0.51 0.52 0.43 0.37 0.27 0.21 0.20 0.17 0.16 0.16 0.16 0.17 0.17 0.17 0.18 0.18 0.15 0.15 0.14 0.15 0.14 0.14 0.14 0.18 0.26 0.32 0.30 0.28 0.30 0.29 0.25 0.18 0.13 0.11
0.00 0.01 0.01 0.01 0.01 0.03 0.08 0.18 0.30 0.36 0.43 0.44 0.45 0.70 0.90 0.74 0.59 0.49 0.38 0.24 0.20 0.24 0.24 0.19 0.21 0.24 0.22 0.23 0.22 0.23 0.21 0.23 0.24 0.23 0.21 0.20 0.20 0.21 0.26 0.34 0.37 0.36 0.35 0.35 0.30 0.23 0.16 0.13 0.14
0.00 0.01 0.02 0.01 0.02 0.05 0.09 0.11 0.24 0.40 0.46 0.48 0.51 0.81 1.22 1.17 0.75 0.50 0.44 0.37 0.29 0.28 0.24 0.22 0.25 0.28 0.29 0.29 0.29 0.29 0.29 0.28 0.28 0.27 0.27 0.24 0.24 0.27 0.32 0.36 0.38 0.38 0.34 0.29 0.25 0.22 0.19 0.19 0.20
0.00 0.01 0.02 0.01 0.03 0.09 0.13 0.15 0.25 0.34 0.45 0.49 0.53 0.90 1.20 1.16 0.88 0.67 0.64 0.53 0.42 0.38 0.36 0.36 0.38 0.38 0.41 0.43 0.41 0.38 0.37 0.35 0.32 0.29 0.26 0.24 0.25 0.30 0.34 0.39 0.44 0.42 0.33 0.28 0.26 0.24 0.22 0.21 0.21
0.00 0.00 0.01 0.01 0.04 0.12 0.17 0.22 0.27 0.30 0.46 0.50 0.51 0.86 1.30 1.34 1.08 1.04 1.04 0.90 0.76 0.72 0.71 0.72 0.69 0.63 0.53 0.46 0.44 0.46 0.46 0.42 0.37 0.30 0.26 0.28 0.33 0.39 0.45 0.42 0.44 0.41 0.36 0.32 0.31 0.27 0.23 0.23 0.22
0.00 0.00 0.00 0.01 0.04 0.11 0.19 0.27 0.27 0.31 0.40 0.63 0.63 0.76 1.14 1.31 1.28 1.33 1.34 1.20 1.26 1.30 1.25 1.08 0.97 0.84 0.84 0.76 0.56 0.58 0.55 0.52 0.46 0.43 0.38 0.41 0.54 0.68 0.75 0.62 0.62 0.54 0.48 0.45 0.44 0.39 0.36 0.33 0.30
0.00 0.00 0.01 0.02 0.04 0.09 0.17 0.26 0.24 0.31 0.39 0.71 0.79 0.86 1.08 1.33 1.59 1.64 1.50 1.38 1.49 1.71 1.55 1.27 1.26 1.21 1.12 0.98 0.91 0.89 0.76 0.73 0.66 0.76 0.68 0.76 1.07 1.19 1.04 1.00 0.84 0.80 0.75 0.67 0.66 0.62 0.51 0.45 0.47
0.00 0.02 0.03 0.05 0.08 0.14 0.20 0.28 0.31 0.35 0.58 0.86 1.07 1.25 1.30 1.54 1.74 1.87 1.84 1.71 1.77 1.76 1.52 1.44 1.53 1.48 1.50 1.49 1.43 1.29 1.23 1.17 1.03 1.14 1.13 1.22 1.23 1.17 1.20 1.29 1.17 1.08 1.05 1.08 1.10 0.88 0.73 0.76 0.82
0.01 0.03 0.06 0.10 0.15 0.20 0.26 0.34 0.43 0.45 0.66 0.96 1.09 1.41 1.65 1.89 1.96 2.07 2.17 2.04 2.16 2.06 1.79 1.63 1.51 1.60 1.78 1.74 1.70 1.71 1.67 1.63 1.54 1.51 1.37 1.49 1.55 1.59 1.58 1.69 1.69 1.70 1.68 1.65 1.55 1.37 1.22 1.13 1.12
0.02 0.03 0.07 0.16 0.19 0.21 0.31 0.38 0.41 0.45 0.59 0.77 0.97 1.24 1.34 1.60 1.96 2.43 2.45 2.52 2.61 2.54 2.29 2.00 1.92 1.90 1.91 1.98 1.99 1.77 1.84 1.85 1.97 1.95 1.74 1.79 1.81 1.88 2.05 2.07 2.17 2.10 2.24 2.18 1.96 1.69 1.59 1.50 1.28
0.03 0.05 0.07 0.14 0.17 0.25 0.35 0.41 0.37 0.46 0.58 0.68 0.84 1.02 1.31 1.45 1.65 2.14 2.57 2.72 2.77 2.77 2.62 2.36 2.17 2.13 2.02 2.18 2.35 2.21 2.03 2.06 2.08 2.16 2.06 2.07 2.14 2.24 2.33 2.38 2.45 2.31 2.33 2.35 2.22 1.94 1.80 1.70 1.53
0.03 0.08 0.14 0.16 0.14 0.19 0.25 0.40 0.41 0.39 0.56 0.77 0.85 0.96 1.26 1.60 1.78 2.19 2.58 2.82 2.99 2.91 2.64 2.64 2.45 2.56 2.60 2.74 2.75 2.76 2.67 2.63 2.58 2.53 2.55 2.48 2.50 2.60 2.61 2.77 2.80 2.68 2.61 2.57 2.48 2.33 2.07 1.96 1.87
0.06 0.12 0.19 0.19 0.15 0.15 0.21 0.45 0.53 0.48 0.63 0.79 0.95 1.05 1.27 1.58 1.87 2.18 2.46 2.61 2.81 2.80 2.80 2.87 2.72 2.77 2.91 2.86 2.79 2.92 3.09 3.03 2.94 2.89 2.94 2.84 2.87 2.96 3.10 3.05 2.92 2.83 2.74 2.70 2.81 2.64 2.37 2.27 2.29
0.06 0.11 0.16 0.19 0.19 0.20 0.25 0.44 0.54 0.52 0.68 0.82 0.88 1.03 1.15 1.30 1.57 1.98 2.39 2.58 2.67 2.73 2.66 2.79 2.93 2.78 2.94 3.02 3.02 3.05 3.23 3.33 3.36 3.35 3.25 3.20 3.25 3.26 3.40 3.35 3.16 2.94 2.84 2.86 2.71 2.73 2.62 2.63 2.58
0.05 0.05 0.08 0.12 0.16 0.18 0.26 0.43 0.56 0.57 0.76 0.85 0.98 0.96 1.06 1.27 1.58 1.92 2.40 2.65 2.66 2.76 2.76 2.80 3.03 2.96 3.13 3.25 3.11 3.12 3.15 3.28 3.41 3.55 3.59 3.67 3.71 3.68 3.70 3.59 3.43 3.26 3.13 3.07 2.95 2.89 2.85 2.70 2.56
0.04 0.05 0.08 0.11 0.14 0.21 0.32 0.48 0.66 0.71 0.82 0.92 1.06 1.08 1.29 1.38 1.55 1.93 2.37 2.69 2.99 2.96 2.97 2.87 2.92 3.09 3.13 3.24 3.33 3.55 3.53 3.53 3.80 4.05 4.13 4.25 4.29 4.13 4.09 3.98 3.81 3.60 3.38 3.20 3.03 2.89 2.75 2.56 2.42
0.04 0.06 0.13 0.20 0.21 0.30 0.40 0.54 0.72 0.81 0.79 0.98 1.20 1.19 1.52 1.71 1.76 1.99 2.42 2.72 2.96 3.08 3.09 3.11 3.24 3.25 3.33 3.64 4.10 4.51 4.80 4.90 4.92 5.06 5.06 4.92 4.75 4.63 4.48 4.38 4.14 3.85 3.59 3.35 3.12 2.88 2.65 2.46 2.33
0.05 0.08 0.15 0.27 0.28 0.37 0.49 0.80 0.89 0.84 0.88 1.06 1.30 1.33 1.56 1.81 2.00 1.91 2.02 2.29 2.62 2.91 3.08 3.12 3.39 3.72 4.10 4.57 5.04 5.42 5.73 5.84 5.67 5.46 5.34 5.10 4.86 4.68 4.35 4.10 4.01 3.78 3.42 3.20 3.02 2.81 2.62 2.41 2.27
0.07 0.07 0.14 0.20 0.25 0.42 0.47 0.85 0.97 0.95 1.12 1.26 1.36 1.27 1.44 1.51 1.74 1.93 1.95 2.06 2.33 2.60 2.84 3.08 3.37 3.95 4.76 5.42 5.89 6.27 6.38 6.31 6.13 5.87 5.48 5.02 4.66 4.33 4.02 3.74 3.46 3.22 2.96 2.74 2.58 2.49 2.45 2.36 2.21
0.04 0.05 0.10 0.15 0.17 0.30 0.36 0.67 0.98 1.05 1.19 1.34 1.47 1.35 1.36 1.45 1.48 1.60 1.70 1.82 2.11 2.36 2.59 2.91 3.28 3.95 4.64 5.27 5.86 6.25 6.37 6.26 5.99 5.53 5.01 4.49 4.02 3.62 3.27 2.99 2.73 2.51 2.31 2.13 1.97 1.94 2.06 2.15 2.13
0.02 0.06 0.12 0.19 0.24 0.40 0.36 0.57 1.08 1.28 1.39 1.59 1.60 1.66 1.74 1.61 1.47 1.42 1.43 1.51 1.68 1.97 2.24 2.62 3.05 3.56 4.10 4.47 4.97 5.31 5.49 5.42 5.08 4.58 3.96 3.50 3.19 2.91 2.58 2.30 2.09 1.87 1.68 1.56 1.51 1.49 1.54 1.67 1.79
0.03 0.09 0.23 0.34 0.41 0.46 0.35 0.62 1.21 1.48 1.48 1.60 1.65 1.75 1.78 1.64 1.51 1.40 1.36 1.37 1.48 1.68 2.00 2.26 2.51 2.91 3.18 3.49 3.89 4.13 4.14 3.98 3.75 3.48 3.20 2.78 2.39 2.07 1.84 1.63 1.48 1.33 1.25 1.22 1.19 1.21 1.28 1.32 1.39
0.03 0.08 0.29 0.52 0.50 0.51 0.60 1.02 1.53 1.56 1.43 1.42 1.48 1.52 1.52 1.34 1.31 1.34 1.37 1.42 1.54 1.51 1.64 1.82 1.94 2.13 2.27 2.40 2.62 2.67 2.62 2.54 2.49 2.33 2.09 1.84 1.56 1.26 1.12 1.04 0.98 0.95 0.95 0.91 0.91 0.93 1.00 1.06 1.11
0.03 0.08 0.13 0.27 0.33 0.56 0.97 1.46 1.79 1.62 1.58 1.53 1.36 1.20 1.33 1.26 1.17 1.23 1.29 1.34 1.39 1.35 1.33 1.36 1.38 1.42 1.44 1.47 1.59 1.65 1.64 1.62 1.57 1.45 1.30 1.17 1.05 0.92 0.83 0.79 0.77 0.75 0.76 0.75 0.74 0.72 0.72 0.79 0.88
0.05 0.07 0.11 0.24 0.55 0.79 1.10 1.56 2.01 2.04 1.99 1.94 1.65 1.33 1.34 1.33 1.30 1.16 1.08 1.12 1.18 1.16 1.15 1.11 1.12 1.10 1.04 0.98 0.99 1.03 1.07 1.04 1.02 0.99 0.91 0.86 0.82 0.75 0.68 0.59 0.55 0.53 0.52 0.56 0.62 0.61 0.58 0.60 0.64
0.08 0.10 0.15 0.28 0.45 0.79 1.32 1.85 1.90 2.15 2.26 2.07 1.73 1.41 1.37 1.34 1.29 1.24 1.25 1.17 1.16 1.14 1.11 1.05 1.02 0.99 0.94 0.89 0.86 0.79 0.73 0.73 0.71 0.68 0.63 0.59 0.56 0.52 0.49 0.45 0.42 0.39 0.38 0.43 0.52 0.54 0.53 0.55 0.56
0.13 0.14 0.15 0.35 0.44 0.57 1.14 1.95 1.96 2.19 2.30 2.10 2.01 1.78 1.58 1.53 1.42 1.33 1.32 1.27 1.26 1.13 1.05 1.02 0.94 0.85 0.80 0.80 0.76 0.68 0.63 0.60 0.57 0.55 0.50 0.43 0.43 0.43 0.42 0.40 0.38 0.34 0.35 0.40 0.45 0.47 0.47 0.51 0.53

GEFSSGP_prec_meanprecacc_204.txt.gz
Total_Precipitation_Accumulation
0.00 0.01 0.01 0.03 0.04 0.04 0.06 0.12 0.20 0.30 0.38 0.40 0.42 0.52 0.55 0.53 0.84 1.55 1.02 0.55 0.37 0.21 0.15 0.12 0.12 0.11 0.10 0.09 0.11 0.12 0.13 0.12 0.11 0.10 0.09 0.09 0.09 0.09 0.09 0.09 0.10 0.15 0.17 0.16 0.15 0.14 0.14 0.12 0.10
0.01 0.01 0.01 0.02 0.03 0.03 0.06 0.12 0.23 0.35 0.41 0.37 0.39 0.42 0.44 0.51 0.49 0.51 0.51 0.42 0.33 0.24 0.21 0.16 0.14 0.12 0.10 0.09 0.11 0.13 0.13 0.12 0.11 0.10 0.09 0.09 0.09 0.09 0.10 0.12 0.13 0.18 0.21 0.20 0.16 0.13 0.11 0.09 0.09
0.01 0.01 0.02 0.01 0.02 0.02 0.09 0.18 0.28 0.38 0.44 0.41 0.49 0.59 0.64 0.59 0.54 0.44 0.38 0.30 0.26 0.21 0.20 0.20 0.16 0.13 0.12 0.12 0.13 0.15 0.15 0.12 0.12 0.11 0.12 0.12 0.11 0.11 0.13 0.18 0.21 0.23 0.23 0.24 0.22 0.17 0.13 0.11 0.10
0.00 0.01 0.01 0.01 0.02 0.02 0.08 0.21 0.32 0.39 0.47 0.46 0.49 0.72 0.77 0.55 0.56 0.46 0.39 0.28 0.22 0.21 0.19 0.19 0.18 0.18 0.19 0.18 0.18 0.19 0.18 0.16 0.16 0.15 0.15 0.14 0.14 0.15 0.18 0.27 0.32 0.31 0.28 0.31 0.30 0.25 0.19 0.14 0.12
0.00 0.01 0.02 0.01 0.02 0.04 0.08 0.19 0.32 0.39 0.47 0.47 0.49 0.74 0.93 0.77 0.63 0.53 0.40 0.25 0.20 0.25 0.25 0.21 0.23 0.25 0.24 0.24 0.22 0.23 0.22 0.24 0.25 0.24 0.21 0.20 0.20 0.21 0.26 0.35 0.37 0.36 0.35 0.35 0.31 0.24 0.16 0.14 0.15
0.01 0.01 0.02 0.02 0.02 0.06 0.10 0.12 0.25 0.43 0.52 0.55 0.57 0.87 1.28 1.21 0.80 0.54 0.47 0.38 0.30 0.28 0.24 0.23 0.26 0.29 0.30 0.30 0.30 0.30 0.30 0.29 0.29 0.28 0.28 0.25 0.24 0.27 0.32 0.37 0.38 0.38 0.35 0.30 0.26 0.22 0.19 0.19 0.20
0.00 0.01 0.02 0.02 0.04 0.10 0.13 0.16 0.26 0.37 0.49 0.55 0.58 0.96 1.25 1.20 0.93 0.70 0.66 0.55 0.42 0.38 0.37 0.37 0.39 0.40 0.43 0.45 0.42 0.39 0.37 0.35 0.32 0.30 0.27 0.24 0.26 0.30 0.34 0.40 0.44 0.42 0.34 0.28 0.27 0.25 0.22 0.22 0.22
0.00 0.00 0.01 0.02 0.04 0.12 0.17 0.22 0.28 0.31 0.48 0.54 0.56 0.91 1.32 1.37 1.11 1.07 1.07 0.91 0.77 0.73 0.73 0.74 0.72 0.65 0.55 0.48 0.46 0.47 0.46 0.42 0.37 0.31 0.27 0.29 0.33 0.39 0.46 0.43 0.45 0.42 0.37 0.34 0.32 0.28 0.24 0.24 0.23
0.00 0.00 0.01 0.02 0.04 0.11 0.20 0.27 0.28 0.33 0.44 0.67 0.68 0.80 1.16 1.33 1.30 1.35 1.36 1.22 1.28 1.32 1.27 1.12 1.00 0.86 0.86 0.77 0.58 0.59 0.57 0.53 0.47 0.44 0.38 0.42 0.54 0.69 0.75 0.62 0.63 0.57 0.51 0.48 0.47 0.42 0.38 0.34 0.31
0.00 0.00 0.01 0.02 0.04 0.09 0.19 0.27 0.26 0.33 0.41 0.72 0.82 0.89 1.11 1.35 1.61 1.67 1.53 1.42 1.55 1.77 1.62 1.33 1.31 1.24 1.14 0.99 0.92 0.90 0.78 0.74 0.67 0.77 0.68 0.77 1.08 1.19 1.04 1.01 0.87 0.86 0.82 0.71 0.70 0.66 0.54 0.47 0.48
0.00 0.02 0.03 0.05 0.08 0.14 0.22 0.30 0.33 0.38 0.60 0.88 1.09 1.28 1.34 1.57 1.77 1.90 1.89 1.78 1.83 1.81 1.56 1.48 1.56 1.51 1.52 1.50 1.44 1.30 1.24 1.19 1.06 1.16 1.15 1.23 1.24 1.18 1.21 1.31 1.23 1.15 1.09 1.12 1.13 0.92 0.76 0.78 0.84
0.01 0.03 0.06 0.10 0.15 0.21 0.27 0.36 0.46 0.49 0.69 0.98 1.10 1.43 1.67 1.92 1.99 2.10 2.19 2.07 2.19 2.10 1.84 1.68 1.56 1.64 1.82 1.78 1.74 1.75 1.72 1.68 1.58 1.56 1.41 1.52 1.58 1.61 1.62 1.74 1.73 1.73 1.70 1.68 1.57 1.40 1.26 1.16 1.14
0.02 0.03 0.07 0.16 0.19 0.22 0.32 0.41 0.44 0.49 0.63 0.80 1.00 1.27 1.38 1.63 1.98 2.45 2.48 2.55 2.64 2.57 2.34 2.07 1.99 1.95 1.98 2.06 2.06 1.85 1.94 1.95 2.06 2.02 1.79 1.84 1.86 1.92 2.09 2.09 2.19 2.13 2.27 2.21 2.01 1.75 1.65 1.53 1.30
0.03 0.05 0.07 0.14 0.17 0.26 0.37 0.43 0.40 0.49 0.62 0.72 0.88 1.07 1.36 1.49 1.68 2.17 2.59 2.74 2.80 2.80 2.65 2.40 2.24 2.20 2.09 2.24 2.41 2.27 2.11 2.14 2.16 2.23 2.12 2.14 2.20 2.30 2.39 2.43 2.48 2.35 2.38 2.42 2.29 2.00 1.84 1.73 1.55
0.04 0.09 0.15 0.17 0.14 0.20 0.27 0.42 0.43 0.41 0.59 0.83 0.90 1.02 1.32 1.65 1.82 2.22 2.61 2.86 3.03 2.95 2.67 2.67 2.49 2.60 2.65 2.80 2.80 2.83 2.74 2.70 2.64 2.57 2.59 2.52 2.55 2.64 2.66 2.82 2.85 2.74 2.67 2.62 2.52 2.37 2.10 1.99 1.90
0.06 0.14 0.20 0.20 0.16 0.16 0.23 0.47 0.55 0.51 0.66 0.82 1.00 1.10 1.33 1.64 1.92 2.24 2.52 2.66 2.86 2.85 2.84 2.90 2.75 2.78 2.93 2.90 2.84 2.98 3.18 3.12 3.02 2.95 2.99 2.90 2.92 3.01 3.16 3.10 2.96 2.86 2.78 2.74 2.85 2.69 2.41 2.31 2.33
0.06 0.12 0.16 0.20 0.20 0.20 0.26 0.45 0.54 0.53 0.69 0.84 0.91 1.05 1.17 1.34 1.62 2.04 2.45 2.64 2.75 2.80 2.72 2.84 2.98 2.82 2.98 3.06 3.05 3.10 3.28 3.38 3.41 3.40 3.28 3.24 3.31 3.32 3.46 3.40 3.19 2.98 2.89 2.91 2.76 2.78 2.69 2.70 2.62
0.05 0.05 0.08 0.13 0.17 0.19 0.26 0.44 0.57 0.58 0.78 0.87 1.00 0.98 1.08 1.30 1.62 1.98 2.46 2.72 2.74 2.84 2.84 2.88 3.11 3.03 3.23 3.34 3.15 3.16 3.21 3.34 3.48 3.61 3.64 3.73 3.78 3.75 3.76 3.65 3.48 3.32 3.18 3.12 2.99 2.94 2.91 2.76 2.61
0.04 0.05 0.08 0.12 0.15 0.21 0.33 0.49 0.66 0.72 0.82 0.93 1.08 1.10 1.32 1.41 1.58 1.98 2.43 2.74 3.06 3.04 3.07 2.99 3.02 3.18 3.26 3.39 3.43 3.62 3.61 3.61 3.87 4.12 4.18 4.30 4.33 4.17 4.13 4.04 3.89 3.68 3.44 3.25 3.08 2.94 2.80 2.61 2.47
0.04 0.06 0.13 0.21 0.21 0.31 0.41 0.55 0.73 0.82 0.80 0.99 1.21 1.21 1.54 1.74 1.78 2.02 2.46 2.78 3.03 3.18 3.24 3.29 3.38 3.38 3.48 3.82 4.27 4.63 4.90 4.98 4.97 5.11 5.11 4.97 4.81 4.68 4.53 4.44 4.22 3.93 3.67 3.41 3.17 2.93 2.70 2.50 2.37
0.05 0.08 0.16 0.27 0.28 0.38 0.50 0.81 0.90 0.85 0.89 1.08 1.32 1.35 1.58 1.84 2.02 1.94 2.05 2.34 2.70 3.02 3.22 3.27 3.53 3.85 4.22 4.70 5.17 5.53 5.81 5.91 5.73 5.53 5.42 5.19 4.95 4.76 4.42 4.17 4.09 3.84 3.48 3.26 3.09 2.89 2.69 2.46 2.32
0.08 0.08 0.14 0.21 0.26 0.42 0.47 0.86 0.99 0.96 1.14 1.28 1.38 1.29 1.46 1.53 1.75 1.95 2.00 2.13 2.42 2.73 2.97 3.20 3.47 4.06 4.87 5.52 5.97 6.34 6.45 6.38 6.22 5.98 5.62 5.15 4.77 4.42 4.12 3.82 3.53 3.28 3.01 2.79 2.64 2.56 2.51 2.43 2.28
0.04 0.05 0.10 0.15 0.18 0.30 0.37 0.68 0.99 1.07 1.21 1.38 1.51 1.37 1.38 1.49 1.53 1.65 1.75 1.89 2.20 2.48 2.72 3.04 3.40 4.06 4.75 5.37 5.95 6.34 6.45 6.35 6.09 5.65 5.16 4.65 4.17 3.76 3.40 3.09 2.79 2.55 2.34 2.16 2.00 1.98 2.11 2.19 2.17
0.02 0.07 0.13 0.19 0.25 0.40 0.37 0.58 1.10 1.29 1.42 1.63 1.65 1.69 1.79 1.68 1.55 1.50 1.51 1.59 1.79 2.08 2.37 2.76 3.17 3.66 4.19 4.56 5.07 5.43 5.60 5.52 5.16 4.66 4.05 3.61 3.31 3.03 2.71 2.40 2.14 1.91 1.70 1.58 1.53 1.52 1.57 1.72 1.83
0.03 0.09 0.24 0.35 0.42 0.47 0.36 0.64 1.23 1.51 1.52 1.64 1.70 1.80 1.83 1.72 1.63 1.51 1.45 1.46 1.57 1.78 2.09 2.37 2.60 2.99 3.25 3.56 3.98 4.23 4.24 4.08 3.82 3.57 3.29 2.87 2.49 2.15 1.91 1.69 1.54 1.38 1.28 1.25 1.23 1.25 1.32 1.37 1.45
0.04 0.08 0.29 0.54 0.51 0.52 0.61 1.05 1.57 1.61 1.48 1.47 1.52 1.57 1.58 1.43 1.40 1.42 1.43 1.47 1.58 1.56 1.69 1.88 1.99 2.19 2.33 2.47 2.69 2.74 2.69 2.61 2.58 2.43 2.18 1.92 1.62 1.32 1.17 1.09 1.03 0.99 0.98 0.94 0.94 0.97 1.05 1.11 1.15
0.03 0.08 0.13 0.28 0.34 0.56 0.98 1.49 1.83 1.68 1.63 1.57 1.41 1.24 1.37 1.30 1.21 1.27 1.32 1.36 1.41 1.37 1.35 1.41 1.48 1.49 1.52 1.55 1.65 1.72 1.70 1.67 1.62 1.50 1.36 1.23 1.11 0.97 0.87 0.83 0.81 0.79 0.80 0.79 0.77 0.75 0.76 0.83 0.92
0.05 0.08 0.12 0.25 0.55 0.80 1.12 1.60 2.06 2.10 2.04 1.97 1.67 1.35 1.38 1.36 1.33 1.20 1.11 1.16 1.22 1.18 1.18 1.18 1.26 1.19 1.11 1.06 1.07 1.09 1.14 1.08 1.05 1.02 0.95 0.92 0.86 0.80 0.71 0.63 0.58 0.56 0.56 0.60 0.67 0.66 0.63 0.66 0.71
0.09 0.11 0.15 0.29 0.46 0.80 1.35 1.91 1.95 2.21 2.30 2.09 1.75 1.43 1.41 1.38 1.33 1.27 1.28 1.20 1.19 1.18 1.16 1.10 1.09 1.06 1.00 0.94 0.91 0.83 0.77 0.75 0.73 0.71 0.67 0.63 0.58 0.55 0.51 0.48 0.45 0.42 0.42 0.48 0.56 0.60 0.59 0.60 0.60
0.14 0.15 0.16 0.37 0.46 0.59 1.17 1.98 2.01 2.24 2.33 2.12 2.02 1.79 1.61 1.56 1.44 1.36 1.36 1.31 1.30 1.17 1.10 1.07 1.02 0.91 0.85 0.84 0.79 0.71 0.65 0.62 0.59 0.57 0.51 0.46 0.45 0.46 0.44 0.42 0.40 0.37 0.38 0.44 0.49 0.51 0.50 0.53 0.55

GEFSSGP_prec_meanprecacc_210.txt.gz
Total_Precipitation_Accumulation
0.00 0.01 0.01 0.03 0.05 0.04 0.06 0.12 0.21 0.31 0.38 0.40 0.43 0.53 0.56 0.54 0.86 1.58 1.03 0.58 0.39 0.22 0.17 0.14 0.14 0.14 0.13 0.12 0.13 0.14 0.13 0.12 0.11 0.10 0.09 0.09 0.09 0.10 0.10 0.10 0.11 0.15 0.17 0.16 0.15 0.15 0.14 0.12 0.11
0.01 0.01 0.01 0.02 0.04 0.04 0.06 0.12 0.23 0.36 0.42 0.37 0.40 0.44 0.45 0.51 0.49 0.52 0.52 0.44 0.35 0.26 0.24 0.18 0.17 0.15 0.13 0.12 0.13 0.14 0.14 0.12 0.11 0.10 0.10 0.09 0.09 0.10 0.11 0.12 0.14 0.19 0.22 0.20 0.16 0.13 0.11 0.10 0.10
0.01 0.01 0.02 0.01 0.02 0.03 0.09 0.19 0.28 0.38 0.45 0.42 0.50 0.60 0.65 0.60 0.55 0.45 0.38 0.31 0.29 0.26 0.25 0.25 0.20 0.16 0.15 0.14 0.15 0.17 0.17 0.15 0.14 0.13 0.13 0.13 0.12 0.12 0.14 0.18 0.21 0.23 0.23 0.25 0.23 0.18 0.15 0.13 0.12
0.00 0.01 0.01 0.01 0.02 0.02 0.08 0.21 0.32 0.39 0.48 0.46 0.50 0.74 0.79 0.56 0.57 0.47 0.39 0.29 0.24 0.27 0.25 0.23 0.22 0.20 0.21 0.20 0.20 0.20 0.20 0.18 0.18 0.18 0.18 0.16 0.16 0.16 0.19 0.27 0.33 0.31 0.29 0.32 0.31 0.27 0.20 0.15 0.14
0.01 0.01 0.02 0.01 0.02 0.04 0.09 0.19 0.32 0.39 0.48 0.48 0.50 0.76 0.95 0.78 0.64 0.54 0.41 0.26 0.22 0.29 0.31 0.25 0.28 0.28 0.27 0.26 0.23 0.25 0.24 0.25 0.27 0.26 0.23 0.22 0.21 0.23 0.27 0.35 0.38 0.37 0.37 0.37 0.33 0.26 0.18 0.15 0.16
0.01 0.02 0.03 0.02 0.02 0.06 0.10 0.12 0.25 0.43 0.53 0.56 0.58 0.88 1.30 1.24 0.82 0.56 0.48 0.40 0.31 0.31 0.27 0.27 0.29 0.31 0.31 0.31 0.31 0.31 0.31 0.30 0.30 0.30 0.29 0.26 0.25 0.28 0.34 0.38 0.40 0.40 0.37 0.33 0.28 0.24 0.21 0.21 0.21
0.00 0.02 0.03 0.02 0.04 0.10 0.13 0.16 0.26 0.37 0.49 0.56 0.59 0.99 1.29 1.23 0.96 0.73 0.68 0.57 0.45 0.40 0.40 0.41 0.43 0.43 0.45 0.47 0.43 0.40 0.38 0.36 0.34 0.32 0.28 0.26 0.27 0.32 0.36 0.42 0.47 0.45 0.37 0.32 0.29 0.27 0.24 0.23 0.23
0.00 0.01 0.02 0.02 0.04 0.12 0.17 0.22 0.28 0.31 0.49 0.54 0.58 0.96 1.35 1.39 1.14 1.09 1.09 0.94 0.79 0.75 0.77 0.78 0.75 0.68 0.58 0.51 0.49 0.50 0.49 0.44 0.39 0.33 0.28 0.30 0.34 0.41 0.48 0.46 0.48 0.46 0.42 0.39 0.37 0.32 0.27 0.26 0.25
0.00 0.00 0.01 0.02 0.05 0.11 0.20 0.28 0.29 0.33 0.44 0.67 0.69 0.83 1.19 1.34 1.31 1.36 1.38 1.23 1.29 1.34 1.29 1.15 1.03 0.89 0.90 0.81 0.62 0.64 0.61 0.58 0.51 0.47 0.41 0.44 0.56 0.71 0.78 0.65 0.66 0.60 0.56 0.54 0.53 0.48 0.44 0.39 0.34
0.00 0.00 0.01 0.02 0.04 0.09 0.19 0.27 0.26 0.33 0.42 0.73 0.84 0.92 1.15 1.37 1.63 1.69 1.54 1.44 1.57 1.79 1.64 1.35 1.33 1.28 1.18 1.03 0.95 0.92 0.81 0.78 0.71 0.81 0.72 0.81 1.11 1.22 1.07 1.04 0.90 0.89 0.86 0.76 0.76 0.72 0.60 0.52 0.54
0.00 0.02 0.03 0.05 0.08 0.14 0.22 0.30 0.33 0.38 0.62 0.89 1.11 1.31 1.39 1.60 1.79 1.92 1.91 1.80 1.85 1.82 1.58 1.50 1.58 1.54 1.55 1.53 1.47 1.32 1.27 1.22 1.10 1.21 1.20 1.28 1.27 1.21 1.24 1.35 1.27 1.19 1.14 1.16 1.18 0.98 0.82 0.84 0.90
0.01 0.03 0.06 0.10 0.15 0.21 0.27 0.37 0.46 0.50 0.70 1.00 1.12 1.45 1.71 1.95 2.02 2.12 2.21 2.08 2.20 2.10 1.84 1.69 1.58 1.67 1.85 1.80 1.76 1.77 1.74 1.72 1.63 1.60 1.43 1.55 1.61 1.65 1.64 1.77 1.76 1.77 1.74 1.72 1.62 1.45 1.31 1.21 1.18
0.02 0.03 0.07 0.17 0.19 0.22 0.32 0.42 0.45 0.49 0.64 0.82 1.02 1.29 1.41 1.66 2.01 2.48 2.49 2.56 2.65 2.57 2.35 2.08 2.00 1.97 1.99 2.08 2.08 1.88 1.98 2.00 2.11 2.05 1.81 1.86 1.89 1.95 2.12 2.12 2.22 2.15 2.30 2.25 2.05 1.79 1.70 1.57 1.34
0.03 0.05 0.08 0.15 0.18 0.26 0.37 0.44 0.41 0.50 0.64 0.75 0.91 1.09 1.39 1.54 1.72 2.19 2.61 2.75 2.80 2.81 2.66 2.41 2.25 2.21 2.10 2.26 2.43 2.30 2.14 2.18 2.20 2.26 2.14 2.16 2.22 2.32 2.41 2.45 2.50 2.37 2.41 2.46 2.34 2.05 1.90 1.77 1.59
0.04 0.09 0.15 0.17 0.15 0.20 0.27 0.43 0.45 0.43 0.61 0.86 0.93 1.05 1.36 1.70 1.88 2.28 2.66 2.90 3.05 2.97 2.69 2.68 2.50 2.61 2.67 2.82 2.82 2.85 2.76 2.72 2.67 2.60 2.61 2.54 2.57 2.66 2.69 2.84 2.87 2.76 2.71 2.66 2.57 2.41 2.16 2.03 1.94
0.07 0.14 0.20 0.20 0.16 0.16 0.24 0.48 0.56 0.53 0.67 0.84 1.03 1.15 1.39 1.69 1.98 2.30 2.58 2.71 2.90 2.88 2.87 2.93 2.77 2.81 2.97 2.93 2.86 3.00 3.20 3.15 3.05 2.97 3.02 2.93 2.95 3.04 3.19 3.13 2.99 2.90 2.80 2.77 2.89 2.73 2.46 2.36 2.38
0.06 0.12 0.16 0.20 0.20 0.21 0.26 0.46 0.55 0.56 0.71 0.84 0.93 1.10 1.25 1.39 1.67 2.08 2.49 2.70 2.80 2.84 2.77 2.90 3.03 2.87 3.03 3.11 3.09 3.13 3.32 3.41 3.44 3.43 3.32 3.29 3.36 3.37 3.51 3.45 3.24 3.02 2.92 2.94 2.80 2.83 2.73 2.74 2.66
0.05 0.06 0.09 0.14 0.17 0.20 0.28 0.44 0.58 0.59 0.79 0.89 1.01 1.01 1.15 1.36 1.66 2.01 2.50 2.77 2.79 2.89 2.89 2.95 3.20 3.14 3.34 3.42 3.21 3.21 3.25 3.38 3.51 3.65 3.68 3.78 3.84 3.82 3.82 3.70 3.54 3.37 3.23 3.16 3.03 2.98 2.95 2.81 2.66
0.05 0.06 0.09 0.12 0.15 0.23 0.35 0.51 0.68 0.73 0.86 0.95 1.10 1.12 1.35 1.44 1.61 2.00 2.46 2.77 3.10 3.08 3.13 3.08 3.13 3.30 3.38 3.49 3.49 3.67 3.65 3.65 3.91 4.15 4.23 4.35 4.40 4.24 4.18 4.08 3.92 3.72 3.47 3.28 3.12 2.96 2.83 2.64 2.52
0.05 0.07 0.15 0.21 0.22 0.32 0.43 0.57 0.75 0.84 0.82 1.01 1.24 1.24 1.57 1.76 1.81 2.04 2.49 2.80 3.07 3.22 3.29 3.38 3.48 3.46 3.57 3.92 4.35 4.71 4.96 5.04 5.02 5.15 5.16 5.02 4.86 4.72 4.57 4.48 4.25 3.96 3.70 3.43 3.19 2.95 2.72 2.52 2.41
0.07 0.09 0.17 0.28 0.29 0.39 0.52 0.84 0.93 0.87 0.91 1.10 1.34 1.37 1.61 1.86 2.05 1.96 2.08 2.38 2.74 3.05 3.26 3.33 3.61 3.92 4.31 4.81 5.26 5.61 5.88 5.99 5.80 5.59 5.47 5.23 4.98 4.80 4.46 4.21 4.12 3.87 3.50 3.28 3.12 2.92 2.71 2.49 2.34
0.09 0.09 0.15 0.22 0.27 0.43 0.49 0.89 1.01 0.99 1.16 1.30 1.40 1.31 1.48 1.56 1.79 1.98 2.02 2.17 2.46 2.76 3.02 3.25 3.52 4.11 4.94 5.60 6.06 6.41 6.52 6.45 6.28 6.05 5.68 5.20 4.82 4.48 4.17 3.87 3.57 3.31 3.04 2.81 2.66 2.58 2.54 2.46 2.31
0.04 0.06 0.11 0.16 0.18 0.31 0.38 0.71 1.01 1.08 1.23 1.40 1.52 1.38 1.40 1.53 1.56 1.68 1.78 1.91 2.23 2.51 2.77 3.09 3.45 4.10 4.79 5.42 6.01 6.41 6.51 6.41 6.16 5.73 5.25 4.72 4.24 3.81 3.45 3.14 2.84 2.60 2.37 2.19 2.02 2.01 2.14 2.22 2.20
0.03 0.07 0.13 0.20 0.26 0.43 0.38 0.60 1.13 1.33 1.45 1.65 1.66 1.70 1.81 1.70 1.58 1.54 1.54 1.62 1.81 2.10 2.39 2.79 3.20 3.70 4.23 4.61 5.13 5.50 5.66 5.57 5.22 4.73 4.12 3.69 3.39 3.10 2.76 2.44 2.19 1.96 1.75 1.62 1.56 1.55 1.60 1.75 1.87
0.04 0.10 0.26 0.37 0.44 0.49 0.39 0.67 1.28 1.56 1.55 1.66 1.72 1.82 1.84 1.73 1.66 1.53 1.48 1.47 1.58 1.79 2.10 2.39 2.63 3.03 3.29 3.60 4.03 4.32 4.31 4.13 3.88 3.62 3.35 2.94 2.54 2.20 1.96 1.73 1.57 1.42 1.33 1.29 1.28 1.29 1.36 1.41 1.49
0.04 0.08 0.31 0.55 0.52 0.53 0.63 1.11 1.65 1.68 1.53 1.50 1.55 1.59 1.61 1.45 1.43 1.45 1.45 1.49 1.59 1.57 1.70 1.91 2.03 2.23 2.38 2.51 2.73 2.80 2.75 2.65 2.62 2.48 2.23 1.97 1.67 1.37 1.23 1.14 1.06 1.02 1.01 0.97 0.98 1.01 1.08 1.14 1.18
0.04 0.09 0.14 0.29 0.35 0.59 1.02 1.56 1.95 1.77 1.67 1.60 1.43 1.27 1.42 1.34 1.25 1.29 1.34 1.38 1.43 1.39 1.40 1.50 1.52 1.52 1.57 1.60 1.70 1.76 1.75 1.72 1.67 1.55 1.41 1.27 1.15 1.01 0.92 0.89 0.86 0.82 0.84 0.82 0.80 0.78 0.79 0.86 0.95
0.06 0.09 0.13 0.26 0.58 0.84 1.18 1.68 2.16 2.17 2.07 2.00 1.70 1.40 1.45 1.42 1.37 1.22 1.12 1.17 1.24 1.21 1.23 1.29 1.33 1.23 1.15 1.10 1.10 1.12 1.17 1.12 1.08 1.06 0.99 0.96 0.91 0.83 0.75 0.67 0.63 0.60 0.59 0.63 0.70 0.70 0.66 0.69 0.73
0.10 0.11 0.16 0.30 0.47 0.83 1.41 1.99 2.01 2.25 2.32 2.12 1.78 1.49 1.47 1.43 1.37 1.29 1.29 1.21 1.19 1.19 1.18 1.13 1.12 1.08 1.02 0.97 0.93 0.85 0.79 0.77 0.76 0.73 0.69 0.66 0.63 0.58 0.54 0.50 0.48 0.46 0.45 0.50 0.59 0.64 0.62 0.63 0.63
0.15 0.15 0.17 0.39 0.47 0.62 1.22 2.06 2.06 2.28 2.37 2.15 2.04 1.82 1.65 1.61 1.48 1.39 1.39 1.33 1.31 1.18 1.12 1.09 1.03 0.93 0.87 0.87 0.82 0.74 0.68 0.64 0.62 0.60 0.54 0.48 0.49 0.49 0.47 0.46 0.43 0.39 0.40 0.47 0.52 0.54 0.52 0.56 0.58

GEFSSGP_prec_meanprecacc_216.txt.gz
Total_Precipitation_Accumulation
0.00 0.01 0.01 0.04 0.05 0.05 0.07 0.14 0.23 0.33 0.39 0.41 0.43 0.54 0.57 0.55 0.90 1.68 1.08 0.59 0.40 0.22 0.17 0.14 0.14 0.14 0.14 0.12 0.13 0.14 0.14 0.13 0.12 0.11 0.10 0.10 0.09 0.10 0.10 0.10 0.11 0.15 0.17 0.16 0.15 0.15 0.14 0.13 0.11
0.01 0.01 0.01 0.02 0.05 0.06 0.08 0.13 0.24 0.36 0.42 0.38 0.40 0.44 0.46 0.53 0.51 0.55 0.54 0.45 0.35 0.26 0.24 0.18 0.17 0.15 0.13 0.13 0.13 0.15 0.15 0.14 0.12 0.11 0.10 0.10 0.10 0.11 0.12 0.13 0.14 0.19 0.22 0.20 0.16 0.13 0.11 0.11 0.11
0.01 0.01 0.02 0.01 0.03 0.04 0.11 0.19 0.28 0.38 0.45 0.42 0.50 0.60 0.66 0.61 0.56 0.49 0.40 0.32 0.30 0.27 0.26 0.26 0.20 0.17 0.15 0.15 0.17 0.19 0.19 0.16 0.14 0.14 0.14 0.14 0.13 0.13 0.15 0.19 0.22 0.23 0.24 0.25 0.23 0.18 0.16 0.14 0.12
0.00 0.01 0.01 0.02 0.02 0.03 0.10 0.22 0.33 0.39 0.48 0.46 0.50 0.75 0.80 0.58 0.58 0.48 0.40 0.29 0.25 0.28 0.27 0.24 0.23 0.21 0.22 0.22 0.21 0.22 0.21 0.19 0.19 0.18 0.18 0.17 0.17 0.18 0.21 0.28 0.34 0.32 0.30 0.32 0.32 0.28 0.21 0.16 0.15
0.01 0.01 0.02 0.01 0.02 0.05 0.10 0.19 0.33 0.40 0.48 0.49 0.50 0.77 0.97 0.80 0.65 0.56 0.42 0.27 0.24 0.31 0.34 0.26 0.30 0.30 0.29 0.27 0.24 0.26 0.25 0.25 0.27 0.26 0.24 0.22 0.22 0.24 0.29 0.36 0.39 0.38 0.38 0.38 0.34 0.26 0.19 0.16 0.17
0.01 0.02 0.03 0.02 0.02 0.06 0.10 0.13 0.26 0.46 0.54 0.56 0.59 0.89 1.32 1.26 0.84 0.59 0.51 0.41 0.34 0.34 0.31 0.30 0.32 0.34 0.33 0.32 0.32 0.31 0.32 0.31 0.31 0.30 0.29 0.26 0.26 0.29 0.34 0.39 0.41 0.41 0.38 0.34 0.30 0.25 0.22 0.21 0.22
0.01 0.04 0.03 0.02 0.04 0.10 0.13 0.16 0.27 0.38 0.50 0.57 0.59 1.00 1.31 1.26 0.99 0.76 0.72 0.60 0.47 0.43 0.44 0.46 0.48 0.47 0.48 0.49 0.45 0.42 0.40 0.38 0.35 0.32 0.29 0.26 0.27 0.32 0.36 0.42 0.47 0.46 0.38 0.33 0.30 0.28 0.24 0.24 0.24
0.01 0.04 0.03 0.02 0.04 0.12 0.17 0.22 0.29 0.32 0.49 0.55 0.58 0.99 1.37 1.41 1.16 1.13 1.13 0.99 0.83 0.78 0.80 0.83 0.81 0.73 0.62 0.54 0.52 0.53 0.51 0.47 0.41 0.34 0.29 0.30 0.35 0.41 0.49 0.46 0.48 0.46 0.43 0.40 0.38 0.34 0.29 0.28 0.27
0.01 0.02 0.03 0.02 0.05 0.11 0.20 0.28 0.29 0.33 0.45 0.68 0.70 0.84 1.20 1.35 1.33 1.39 1.41 1.28 1.35 1.38 1.32 1.19 1.08 0.94 0.93 0.83 0.64 0.67 0.65 0.60 0.53 0.49 0.42 0.45 0.58 0.74 0.81 0.66 0.67 0.61 0.57 0.55 0.54 0.49 0.45 0.41 0.37
0.01 0.01 0.03 0.03 0.05 0.10 0.19 0.27 0.27 0.34 0.43 0.77 0.87 0.94 1.17 1.39 1.65 1.71 1.58 1.48 1.62 1.83 1.68 1.39 1.37 1.33 1.22 1.05 0.97 0.95 0.84 0.82 0.75 0.86 0.76 0.84 1.15 1.26 1.10 1.07 0.93 0.91 0.88 0.78 0.77 0.73 0.61 0.54 0.56
0.00 0.02 0.04 0.05 0.09 0.15 0.22 0.31 0.34 0.39 0.64 0.92 1.13 1.33 1.41 1.62 1.81 1.95 1.94 1.84 1.89 1.86 1.61 1.53 1.61 1.57 1.59 1.56 1.48 1.33 1.29 1.25 1.13 1.25 1.23 1.32 1.32 1.26 1.29 1.39 1.30 1.22 1.16 1.19 1.21 1.00 0.84 0.88 0.95
0.01 0.04 0.06 0.10 0.16 0.22 0.29 0.38 0.46 0.50 0.71 1.01 1.14 1.46 1.72 1.97 2.04 2.15 2.24 2.10 2.22 2.13 1.87 1.71 1.59 1.69 1.87 1.83 1.79 1.79 1.76 1.75 1.67 1.64 1.46 1.59 1.66 1.70 1.70 1.83 1.82 1.82 1.80 1.77 1.66 1.48 1.36 1.25 1.22
0.02 0.03 0.07 0.17 0.21 0.25 0.36 0.44 0.46 0.50 0.65 0.84 1.05 1.30 1.41 1.68 2.04 2.52 2.53 2.58 2.67 2.59 2.37 2.10 2.02 1.98 2.01 2.11 2.13 1.91 2.00 2.02 2.16 2.11 1.87 1.91 1.94 2.01 2.18 2.17 2.26 2.20 2.35 2.30 2.09 1.83 1.73 1.60 1.37
0.04 0.05 0.08 0.15 0.21 0.31 0.41 0.46 0.42 0.51 0.65 0.79 0.92 1.10 1.40 1.55 1.75 2.23 2.66 2.80 2.83 2.82 2.68 2.43 2.28 2.24 2.13 2.29 2.49 2.35 2.17 2.21 2.25 2.31 2.18 2.21 2.29 2.38 2.47 2.50 2.55 2.42 2.45 2.50 2.37 2.08 1.94 1.81 1.62
0.04 0.09 0.15 0.18 0.18 0.24 0.32 0.46 0.46 0.44 0.63 0.89 0.95 1.06 1.38 1.73 1.92 2.34 2.72 2.96 3.10 3.00 2.72 2.70 2.52 2.65 2.72 2.86 2.87 2.89 2.80 2.77 2.72 2.64 2.65 2.60 2.65 2.73 2.74 2.90 2.92 2.80 2.74 2.69 2.60 2.45 2.21 2.07 1.97
0.07 0.15 0.23 0.23 0.20 0.17 0.26 0.51 0.57 0.53 0.67 0.86 1.04 1.17 1.40 1.72 2.03 2.36 2.65 2.78 2.97 2.94 2.92 2.98 2.81 2.86 3.02 2.99 2.92 3.05 3.24 3.20 3.09 3.00 3.05 2.97 3.00 3.09 3.24 3.18 3.04 2.94 2.84 2.81 2.93 2.77 2.49 2.41 2.43
0.08 0.14 0.19 0.23 0.21 0.22 0.29 0.51 0.58 0.58 0.71 0.85 0.94 1.12 1.27 1.43 1.72 2.15 2.59 2.80 2.90 2.92 2.83 2.97 3.12 2.96 3.13 3.20 3.18 3.21 3.39 3.47 3.49 3.48 3.37 3.33 3.40 3.41 3.55 3.50 3.29 3.08 2.97 2.99 2.83 2.87 2.79 2.79 2.71
0.07 0.08 0.11 0.15 0.18 0.22 0.30 0.49 0.62 0.63 0.81 0.90 1.04 1.04 1.17 1.40 1.72 2.08 2.60 2.88 2.88 2.96 2.95 3.02 3.27 3.22 3.44 3.54 3.32 3.31 3.33 3.44 3.56 3.69 3.72 3.82 3.89 3.87 3.86 3.74 3.59 3.43 3.28 3.20 3.07 3.03 3.01 2.86 2.71
0.07 0.08 0.12 0.13 0.16 0.24 0.37 0.55 0.70 0.75 0.88 0.97 1.14 1.16 1.39 1.48 1.67 2.07 2.53 2.87 3.18 3.14 3.19 3.15 3.21 3.42 3.53 3.65 3.63 3.78 3.74 3.72 3.96 4.19 4.26 4.38 4.44 4.29 4.23 4.12 4.00 3.78 3.53 3.35 3.17 3.02 2.89 2.70 2.59
0.07 0.09 0.16 0.23 0.23 0.34 0.45 0.60 0.77 0.86 0.84 1.04 1.28 1.28 1.60 1.80 1.85 2.10 2.56 2.89 3.14 3.28 3.35 3.45 3.55 3.56 3.69 4.07 4.50 4.85 5.09 5.14 5.10 5.22 5.22 5.07 4.90 4.78 4.64 4.57 4.36 4.04 3.77 3.50 3.26 3.04 2.80 2.58 2.50
0.09 0.11 0.18 0.30 0.32 0.41 0.54 0.89 0.98 0.92 0.94 1.13 1.38 1.40 1.63 1.89 2.09 2.01 2.14 2.48 2.81 3.09 3.31 3.40 3.69 4.00 4.40 4.92 5.39 5.74 6.02 6.12 5.91 5.68 5.56 5.32 5.07 4.89 4.55 4.32 4.24 3.97 3.58 3.36 3.21 3.01 2.79 2.56 2.42
0.09 0.09 0.15 0.23 0.30 0.46 0.52 0.96 1.08 1.05 1.20 1.34 1.43 1.33 1.50 1.58 1.83 2.02 2.06 2.24 2.52 2.80 3.06 3.31 3.59 4.19 5.03 5.71 6.17 6.51 6.64 6.59 6.42 6.15 5.78 5.28 4.89 4.54 4.24 3.96 3.67 3.42 3.14 2.92 2.74 2.67 2.64 2.55 2.37
0.04 0.06 0.11 0.16 0.20 0.35 0.41 0.78 1.11 1.14 1.30 1.45 1.56 1.41 1.43 1.55 1.59 1.71 1.81 1.96 2.27 2.56 2.81 3.15 3.51 4.19 4.89 5.53 6.11 6.53 6.65 6.56 6.30 5.84 5.34 4.80 4.32 3.89 3.53 3.23 2.93 2.69 2.46 2.28 2.11 2.09 2.21 2.29 2.26
0.03 0.07 0.14 0.21 0.31 0.50 0.42 0.66 1.21 1.41 1.54 1.70 1.69 1.73 1.83 1.73 1.61 1.57 1.58 1.67 1.86 2.14 2.42 2.83 3.24 3.76 4.31 4.69 5.22 5.61 5.79 5.70 5.33 4.83 4.22 3.79 3.47 3.16 2.82 2.50 2.25 2.03 1.82 1.70 1.64 1.63 1.68 1.83 1.95
0.05 0.13 0.35 0.45 0.52 0.56 0.41 0.74 1.39 1.63 1.60 1.71 1.77 1.84 1.87 1.76 1.69 1.56 1.51 1.52 1.63 1.84 2.14 2.41 2.66 3.08 3.35 3.66 4.11 4.39 4.41 4.23 3.98 3.73 3.46 3.03 2.61 2.26 2.01 1.77 1.62 1.47 1.39 1.36 1.36 1.38 1.44 1.49 1.56
0.05 0.11 0.38 0.64 0.59 0.58 0.67 1.21 1.75 1.73 1.57 1.54 1.59 1.62 1.63 1.48 1.46 1.48 1.48 1.52 1.63 1.61 1.74 1.93 2.06 2.28 2.44 2.57 2.80 2.87 2.83 2.73 2.70 2.55 2.30 2.03 1.74 1.45 1.30 1.20 1.11 1.06 1.05 1.01 1.03 1.07 1.14 1.21 1.24
0.05 0.10 0.15 0.33 0.40 0.65 1.11 1.65 2.02 1.82 1.72 1.63 1.45 1.30 1.44 1.38 1.29 1.34 1.38 1.43 1.48 1.46 1.46 1.53 1.56 1.57 1.63 1.65 1.75 1.82 1.80 1.78 1.74 1.63 1.48 1.36 1.24 1.08 0.97 0.94 0.90 0.86 0.87 0.86 0.85 0.82 0.83 0.91 1.00
0.06 0.09 0.14 0.31 0.66 0.93 1.28 1.79 2.26 2.22 2.11 2.03 1.73 1.43 1.48 1.45 1.41 1.30 1.18 1.22 1.30 1.30 1.31 1.36 1.38 1.27 1.20 1.16 1.17 1.19 1.22 1.18 1.15 1.12 1.05 1.03 0.99 0.89 0.80 0.71 0.68 0.64 0.63 0.67 0.75 0.75 0.71 0.74 0.78
0.11 0.13 0.19 0.36 0.54 0.93 1.55 2.13 2.11 2.33 2.38 2.18 1.83 1.53 1.51 1.47 1.44 1.41 1.36 1.25 1.23 1.23 1.23 1.20 1.17 1.13 1.07 1.03 1.01 0.94 0.87 0.84 0.83 0.81 0.77 0.74 0.69 0.64 0.59 0.55 0.52 0.49 0.49 0.54 0.64 0.69 0.68 0.68 0.68
0.15 0.17 0.20 0.45 0.54 0.68 1.32 2.18 2.15 2.34 2.42 2.20 2.08 1.86 1.69 1.69 1.56 1.48 1.46 1.36 1.33 1.20 1.14 1.13 1.08 0.98 0.92 0.91 0.88 0.79 0.73 0.71 0.70 0.68 0.62 0.56 0.58 0.57 0.53 0.50 0.47 0.42 0.44 0.51 0.56 0.57 0.56 0.61 0.62

GEFSSGP_prec_meanprecacc_222.txt.gz
Total_Precipitation_Accumulation
0.00 0.01 0.01 0.04 0.06 0.08 0.11 0.17 0.27 0.36 0.42 0.43 0.44 0.56 0.59 0.57 0.92 1.74 1.20 0.72 0.53 0.32 0.20 0.15 0.14 0.14 0.14 0.13 0.14 0.14 0.15 0.14 0.13 0.11 0.10 0.10 0.09 0.10 0.10 0.10 0.11 0.15 0.17 0.16 0.15 0.15 0.14 0.13 0.11
0.01 0.01 0.01 0.03 0.05 0.07 0.09 0.15 0.27 0.40 0.45 0.40 0.42 0.45 0.47 0.54 0.52 0.59 0.60 0.50 0.44 0.34 0.29 0.20 0.17 0.15 0.14 0.13 0.14 0.15 0.15 0.14 0.12 0.11 0.10 0.10 0.10 0.11 0.12 0.13 0.15 0.19 0.22 0.20 0.16 0.13 0.11 0.11 0.11
0.01 0.01 0.02 0.02 0.04 0.05 0.13 0.21 0.30 0.41 0.47 0.44 0.52 0.62 0.68 0.63 0.58 0.54 0.47 0.39 0.35 0.30 0.29 0.27 0.21 0.17 0.16 0.15 0.17 0.19 0.20 0.16 0.15 0.14 0.14 0.15 0.13 0.13 0.16 0.20 0.23 0.24 0.24 0.25 0.23 0.19 0.16 0.14 0.12
0.00 0.01 0.01 0.02 0.03 0.04 0.11 0.24 0.35 0.41 0.50 0.49 0.52 0.77 0.82 0.59 0.59 0.53 0.47 0.35 0.30 0.32 0.31 0.26 0.24 0.22 0.23 0.22 0.21 0.22 0.22 0.19 0.19 0.19 0.19 0.18 0.17 0.18 0.21 0.29 0.34 0.32 0.30 0.33 0.32 0.29 0.22 0.16 0.15
0.01 0.02 0.03 0.02 0.03 0.05 0.10 0.21 0.36 0.44 0.50 0.50 0.51 0.78 0.99 0.83 0.67 0.58 0.46 0.32 0.28 0.35 0.38 0.29 0.31 0.31 0.29 0.28 0.25 0.27 0.26 0.26 0.28 0.27 0.24 0.22 0.22 0.24 0.29 0.36 0.39 0.39 0.38 0.38 0.35 0.28 0.20 0.17 0.17
0.01 0.03 0.06 0.04 0.03 0.07 0.12 0.14 0.29 0.49 0.56 0.58 0.61 0.92 1.36 1.30 0.87 0.61 0.53 0.45 0.37 0.36 0.33 0.33 0.34 0.35 0.35 0.33 0.33 0.33 0.33 0.32 0.32 0.31 0.30 0.27 0.26 0.29 0.35 0.39 0.42 0.42 0.39 0.35 0.31 0.26 0.24 0.23 0.23
0.01 0.04 0.05 0.05 0.05 0.11 0.15 0.17 0.29 0.41 0.52 0.58 0.61 1.04 1.35 1.29 1.03 0.79 0.75 0.63 0.51 0.46 0.46 0.48 0.50 0.49 0.50 0.51 0.46 0.44 0.42 0.39 0.36 0.33 0.30 0.27 0.29 0.33 0.38 0.44 0.48 0.47 0.38 0.33 0.31 0.29 0.26 0.25 0.25
0.02 0.05 0.04 0.03 0.05 0.14 0.19 0.24 0.31 0.34 0.51 0.56 0.59 1.00 1.40 1.43 1.21 1.19 1.20 1.06 0.91 0.84 0.85 0.87 0.84 0.75 0.63 0.56 0.54 0.54 0.53 0.48 0.42 0.35 0.30 0.31 0.36 0.43 0.50 0.47 0.49 0.47 0.43 0.40 0.39 0.35 0.29 0.29 0.28
0.01 0.03 0.04 0.03 0.06 0.14 0.21 0.29 0.32 0.36 0.48 0.71 0.71 0.87 1.22 1.38 1.35 1.43 1.48 1.38 1.45 1.47 1.41 1.25 1.12 0.96 0.94 0.84 0.65 0.68 0.65 0.61 0.54 0.49 0.43 0.46 0.59 0.75 0.82 0.67 0.68 0.62 0.58 0.55 0.56 0.50 0.46 0.42 0.37
0.01 0.03 0.04 0.04 0.06 0.13 0.20 0.28 0.29 0.39 0.49 0.81 0.91 0.98 1.22 1.43 1.68 1.74 1.63 1.58 1.72 1.93 1.80 1.48 1.43 1.37 1.24 1.07 0.99 0.96 0.85 0.84 0.76 0.86 0.77 0.85 1.15 1.27 1.11 1.08 0.95 0.93 0.90 0.79 0.78 0.75 0.62 0.55 0.57
0.01 0.03 0.05 0.08 0.11 0.18 0.24 0.32 0.35 0.43 0.71 0.96 1.16 1.37 1.47 1.66 1.85 2.00 2.00 1.91 1.95 1.93 1.71 1.67 1.76 1.66 1.62 1.60 1.51 1.35 1.31 1.26 1.14 1.26 1.24 1.32 1.34 1.27 1.30 1.40 1.32 1.24 1.18 1.21 1.23 1.03 0.86 0.89 0.95
0.01 0.05 0.08 0.12 0.17 0.24 0.31 0.42 0.52 0.55 0.77 1.06 1.19 1.52 1.80 2.04 2.11 2.22 2.34 2.19 2.27 2.16 1.91 1.81 1.74 1.80 1.93 1.87 1.83 1.82 1.79 1.76 1.68 1.64 1.47 1.61 1.68 1.73 1.72 1.85 1.84 1.86 1.84 1.81 1.68 1.50 1.37 1.26 1.23
0.02 0.04 0.08 0.18 0.22 0.27 0.38 0.49 0.55 0.64 0.74 0.91 1.11 1.34 1.46 1.74 2.10 2.60 2.62 2.70 2.79 2.68 2.41 2.15 2.13 2.06 2.06 2.15 2.17 1.95 2.03 2.04 2.17 2.12 1.88 1.94 1.97 2.03 2.22 2.22 2.31 2.26 2.41 2.34 2.13 1.87 1.76 1.62 1.38
0.04 0.06 0.08 0.16 0.22 0.32 0.42 0.51 0.52 0.68 0.84 0.87 0.99 1.14 1.44 1.59 1.79 2.29 2.73 2.89 2.97 2.98 2.77 2.49 2.35 2.32 2.21 2.37 2.54 2.43 2.24 2.25 2.28 2.35 2.22 2.24 2.32 2.43 2.52 2.54 2.60 2.48 2.50 2.53 2.41 2.12 1.97 1.83 1.64
0.04 0.09 0.15 0.18 0.20 0.26 0.35 0.53 0.54 0.59 0.84 1.01 1.02 1.12 1.41 1.78 1.98 2.40 2.79 3.09 3.33 3.21 2.86 2.80 2.58 2.71 2.82 3.03 2.97 2.97 2.89 2.84 2.77 2.68 2.69 2.63 2.67 2.76 2.77 2.94 2.97 2.85 2.77 2.72 2.63 2.47 2.23 2.10 2.00
0.08 0.15 0.24 0.25 0.23 0.19 0.31 0.61 0.66 0.63 0.79 0.95 1.11 1.25 1.46 1.77 2.09 2.44 2.72 2.89 3.18 3.21 3.12 3.13 2.91 2.93 3.10 3.13 3.08 3.13 3.33 3.28 3.17 3.06 3.09 3.00 3.02 3.12 3.28 3.24 3.09 2.97 2.88 2.85 2.96 2.80 2.52 2.44 2.47
0.09 0.15 0.22 0.27 0.25 0.24 0.32 0.58 0.65 0.67 0.82 0.91 0.98 1.17 1.32 1.50 1.80 2.21 2.66 2.89 3.02 3.11 3.02 3.14 3.23 3.05 3.23 3.32 3.32 3.36 3.51 3.57 3.56 3.54 3.43 3.37 3.44 3.46 3.62 3.57 3.35 3.14 3.05 3.06 2.89 2.92 2.83 2.84 2.76
0.09 0.10 0.14 0.19 0.21 0.26 0.33 0.53 0.66 0.70 0.92 0.97 1.08 1.09 1.22 1.45 1.77 2.14 2.66 2.97 3.00 3.13 3.12 3.19 3.43 3.35 3.59 3.68 3.46 3.47 3.51 3.58 3.66 3.79 3.81 3.88 3.95 3.92 3.92 3.79 3.65 3.52 3.37 3.26 3.14 3.12 3.08 2.92 2.78
0.08 0.09 0.14 0.17 0.20 0.28 0.40 0.57 0.74 0.80 0.98 1.06 1.19 1.23 1.47 1.56 1.72 2.13 2.60 2.95 3.31 3.35 3.42 3.38 3.44 3.59 3.69 3.81 3.79 3.95 3.90 3.86 4.09 4.29 4.36 4.46 4.51 4.37 4.32 4.21 4.07 3.84 3.59 3.40 3.24 3.11 2.98 2.77 2.67
0.08 0.09 0.18 0.26 0.27 0.37 0.47 0.63 0.82 0.92 0.93 1.13 1.34 1.35 1.79 1.93 1.93 2.16 2.64 3.00 3.32 3.51 3.62 3.72 3.76 3.74 3.83 4.22 4.64 5.00 5.24 5.28 5.24 5.33 5.33 5.18 5.04 4.93 4.76 4.66 4.44 4.12 3.84 3.56 3.32 3.11 2.86 2.63 2.58
0.10 0.12 0.20 0.32 0.33 0.43 0.56 0.94 1.06 1.01 1.03 1.20 1.44 1.50 1.86 2.10 2.21 2.07 2.22 2.60 3.00 3.31 3.54 3.61 3.85 4.14 4.54 5.05 5.50 5.84 6.11 6.23 6.05 5.80 5.67 5.42 5.19 5.02 4.69 4.44 4.33 4.05 3.66 3.43 3.28 3.09 2.88 2.65 2.52
0.10 0.10 0.17 0.24 0.32 0.49 0.54 1.02 1.21 1.17 1.28 1.40 1.49 1.42 1.62 1.70 1.94 2.09 2.12 2.33 2.65 2.93 3.23 3.49 3.76 4.32 5.13 5.80 6.24 6.58 6.71 6.66 6.50 6.25 5.86 5.38 4.99 4.64 4.35 4.08 3.80 3.53 3.22 2.99 2.82 2.75 2.71 2.61 2.43
0.05 0.06 0.12 0.17 0.22 0.37 0.44 0.84 1.18 1.22 1.40 1.54 1.62 1.48 1.52 1.66 1.67 1.77 1.86 2.02 2.36 2.67 2.95 3.30 3.62 4.27 4.96 5.58 6.18 6.60 6.71 6.62 6.38 5.93 5.42 4.89 4.40 3.98 3.65 3.36 3.10 2.85 2.58 2.37 2.18 2.15 2.27 2.33 2.29
0.04 0.08 0.16 0.23 0.33 0.54 0.47 0.71 1.27 1.48 1.62 1.77 1.73 1.77 1.91 1.82 1.68 1.65 1.65 1.72 1.94 2.24 2.52 2.92 3.30 3.81 4.36 4.75 5.30 5.69 5.85 5.76 5.40 4.89 4.29 3.87 3.57 3.27 2.93 2.65 2.42 2.17 1.93 1.79 1.72 1.69 1.73 1.86 1.97
0.06 0.14 0.40 0.50 0.57 0.62 0.45 0.81 1.49 1.71 1.66 1.76 1.80 1.89 1.94 1.85 1.80 1.65 1.62 1.63 1.73 1.94 2.22 2.47 2.70 3.11 3.38 3.70 4.15 4.44 4.46 4.29 4.03 3.78 3.53 3.11 2.71 2.35 2.12 1.91 1.73 1.55 1.47 1.44 1.44 1.44 1.49 1.52 1.59
0.05 0.12 0.42 0.69 0.67 0.65 0.72 1.29 1.86 1.83 1.65 1.60 1.64 1.70 1.72 1.58 1.54 1.55 1.55 1.59 1.70 1.69 1.81 1.99 2.10 2.31 2.46 2.59 2.82 2.90 2.87 2.78 2.75 2.62 2.37 2.10 1.79 1.51 1.39 1.29 1.19 1.13 1.12 1.08 1.12 1.16 1.22 1.28 1.29
0.07 0.11 0.17 0.36 0.44 0.72 1.19 1.73 2.11 1.88 1.77 1.68 1.51 1.38 1.52 1.45 1.35 1.40 1.45 1.51 1.59 1.54 1.50 1.56 1.59 1.60 1.66 1.68 1.78 1.86 1.85 1.84 1.80 1.68 1.53 1.41 1.30 1.13 1.04 1.01 0.98 0.94 0.94 0.93 0.92 0.89 0.89 0.97 1.06
0.08 0.11 0.18 0.35 0.71 1.00 1.36 1.85 2.32 2.27 2.15 2.07 1.81 1.53 1.60 1.55 1.49 1.37 1.27 1.34 1.44 1.39 1.36 1.40 1.42 1.30 1.22 1.18 1.20 1.23 1.27 1.23 1.20 1.17 1.09 1.07 1.04 0.96 0.88 0.79 0.77 0.74 0.72 0.76 0.82 0.81 0.76 0.78 0.81
0.12 0.14 0.20 0.39 0.59 0.99 1.62 2.20 2.17 2.37 2.43 2.23 1.91 1.63 1.63 1.56 1.52 1.50 1.43 1.32 1.30 1.31 1.32 1.26 1.21 1.16 1.10 1.06 1.04 0.99 0.93 0.91 0.90 0.87 0.82 0.80 0.76 0.73 0.69 0.64 0.61 0.59 0.57 0.60 0.68 0.72 0.71 0.71 0.71
0.16 0.19 0.22 0.49 0.58 0.71 1.37 2.26 2.21 2.39 2.47 2.25 2.17 1.97 1.79 1.78 1.66 1.57 1.51 1.39 1.36 1.23 1.18 1.16 1.10 1.01 0.95 0.95 0.92 0.84 0.80 0.78 0.77 0.74 0.68 0.62 0.64 0.67 0.65 0.60 0.55 0.50 0.50 0.56 0.59 0.60 0.58 0.63 0.65

GEFSSGP_prec_meanprecacc_228.txt.gz
Total_Precipitation_Accumulation
0.00 0.01 0.01 0.04 0.06 0.09 0.13 0.19 0.29 0.39 0.45 0.45 0.46 0.57 0.61 0.58 0.93 1.76 1.23 0.74 0.58 0.45 0.29 0.20 0.17 0.15 0.15 0.13 0.14 0.15 0.15 0.14 0.13 0.12 0.11 0.10 0.10 0.10 0.11 0.11 0.12 0.16 0.18 0.17 0.16 0.15 0.14 0.13 0.12
0.01 0.01 0.01 0.03 0.06 0.08 0.10 0.17 0.30 0.44 0.48 0.44 0.45 0.48 0.50 0.55 0.53 0.60 0.63 0.52 0.47 0.41 0.37 0.27 0.23 0.18 0.15 0.14 0.14 0.16 0.16 0.15 0.13 0.12 0.11 0.10 0.10 0.11 0.13 0.14 0.15 0.20 0.22 0.21 0.17 0.14 0.12 0.11 0.12
0.01 0.01 0.02 0.02 0.04 0.06 0.14 0.22 0.32 0.45 0.51 0.47 0.55 0.67 0.72 0.65 0.60 0.57 0.53 0.44 0.38 0.33 0.32 0.33 0.26 0.21 0.19 0.17 0.18 0.20 0.20 0.17 0.15 0.15 0.15 0.15 0.14 0.14 0.16 0.21 0.24 0.24 0.25 0.26 0.24 0.20 0.17 0.15 0.13
0.00 0.01 0.01 0.02 0.03 0.04 0.12 0.25 0.36 0.43 0.52 0.52 0.55 0.83 0.88 0.62 0.61 0.57 0.57 0.42 0.33 0.35 0.33 0.31 0.29 0.26 0.27 0.26 0.23 0.22 0.22 0.20 0.20 0.19 0.19 0.18 0.18 0.19 0.22 0.30 0.35 0.33 0.31 0.34 0.33 0.30 0.23 0.18 0.17
0.01 0.02 0.03 0.02 0.03 0.05 0.11 0.22 0.38 0.46 0.52 0.52 0.55 0.84 1.06 0.86 0.70 0.63 0.52 0.36 0.31 0.38 0.41 0.33 0.37 0.36 0.35 0.34 0.31 0.30 0.27 0.27 0.29 0.28 0.25 0.23 0.23 0.26 0.30 0.37 0.40 0.40 0.39 0.39 0.36 0.29 0.21 0.18 0.19
0.01 0.03 0.06 0.04 0.04 0.07 0.12 0.15 0.30 0.50 0.58 0.60 0.64 0.97 1.42 1.34 0.90 0.63 0.56 0.49 0.42 0.41 0.36 0.37 0.40 0.43 0.41 0.40 0.41 0.40 0.37 0.35 0.34 0.34 0.33 0.29 0.28 0.30 0.36 0.40 0.42 0.43 0.40 0.36 0.32 0.27 0.24 0.23 0.24
0.01 0.04 0.06 0.05 0.05 0.11 0.15 0.18 0.30 0.42 0.53 0.61 0.64 1.07 1.39 1.34 1.09 0.83 0.77 0.66 0.56 0.50 0.49 0.53 0.58 0.58 0.57 0.57 0.55 0.51 0.47 0.43 0.39 0.37 0.32 0.29 0.30 0.34 0.38 0.44 0.49 0.47 0.39 0.35 0.33 0.30 0.27 0.26 0.26
0.02 0.05 0.04 0.04 0.06 0.14 0.19 0.24 0.32 0.36 0.54 0.58 0.63 1.03 1.42 1.47 1.25 1.22 1.21 1.08 0.94 0.87 0.88 0.91 0.90 0.82 0.71 0.65 0.66 0.64 0.58 0.53 0.46 0.38 0.33 0.34 0.38 0.45 0.52 0.49 0.50 0.49 0.45 0.41 0.41 0.37 0.31 0.30 0.29
0.01 0.04 0.04 0.03 0.06 0.14 0.22 0.30 0.34 0.39 0.51 0.74 0.75 0.89 1.26 1.40 1.39 1.46 1.51 1.40 1.47 1.49 1.45 1.29 1.20 1.03 1.00 0.91 0.71 0.73 0.70 0.65 0.56 0.51 0.45 0.48 0.61 0.77 0.84 0.69 0.71 0.65 0.60 0.58 0.58 0.53 0.49 0.44 0.39
0.01 0.03 0.04 0.04 0.06 0.13 0.21 0.30 0.32 0.43 0.55 0.85 0.94 1.01 1.26 1.46 1.71 1.79 1.67 1.61 1.74 1.95 1.83 1.54 1.50 1.45 1.29 1.12 1.02 0.98 0.86 0.84 0.77 0.87 0.77 0.85 1.16 1.28 1.12 1.11 0.99 0.98 0.93 0.82 0.82 0.78 0.65 0.58 0.59
0.01 0.03 0.05 0.08 0.11 0.19 0.25 0.34 0.37 0.47 0.75 0.98 1.18 1.39 1.49 1.70 1.89 2.04 2.04 1.95 1.99 1.96 1.74 1.72 1.82 1.73 1.68 1.65 1.55 1.38 1.32 1.28 1.15 1.26 1.25 1.33 1.35 1.28 1.31 1.43 1.35 1.27 1.21 1.24 1.26 1.06 0.89 0.91 0.97
0.01 0.05 0.08 0.12 0.18 0.25 0.33 0.44 0.55 0.57 0.79 1.08 1.21 1.55 1.82 2.06 2.14 2.26 2.39 2.25 2.32 2.20 1.94 1.85 1.78 1.84 1.96 1.91 1.86 1.86 1.82 1.79 1.69 1.65 1.48 1.64 1.72 1.76 1.75 1.88 1.86 1.87 1.88 1.86 1.74 1.56 1.41 1.29 1.25
0.03 0.04 0.08 0.18 0.22 0.28 0.39 0.52 0.58 0.67 0.76 0.92 1.13 1.37 1.49 1.77 2.12 2.64 2.67 2.78 2.88 2.75 2.46 2.20 2.17 2.11 2.11 2.21 2.23 2.01 2.09 2.09 2.22 2.16 1.91 1.97 2.04 2.09 2.26 2.26 2.34 2.30 2.46 2.39 2.19 1.93 1.81 1.65 1.41
0.05 0.07 0.09 0.16 0.23 0.33 0.44 0.54 0.55 0.73 0.88 0.90 1.01 1.17 1.46 1.61 1.81 2.32 2.77 2.94 3.04 3.08 2.85 2.56 2.40 2.36 2.27 2.45 2.63 2.51 2.34 2.36 2.37 2.42 2.29 2.31 2.38 2.48 2.56 2.59 2.65 2.52 2.54 2.57 2.46 2.17 2.02 1.87 1.67
0.05 0.10 0.16 0.19 0.20 0.26 0.36 0.55 0.59 0.67 0.92 1.07 1.06 1.15 1.44 1.81 2.01 2.42 2.82 3.14 3.38 3.29 2.97 2.90 2.67 2.78 2.89 3.11 3.04 3.03 2.97 2.91 2.83 2.73 2.75 2.68 2.71 2.81 2.82 2.99 3.03 2.90 2.82 2.75 2.67 2.52 2.28 2.16 2.06
0.08 0.16 0.26 0.26 0.24 0.20 0.33 0.63 0.70 0.70 0.94 1.08 1.19 1.28 1.48 1.79 2.11 2.47 2.76 2.95 3.24 3.26 3.20 3.27 3.06 3.05 3.21 3.24 3.18 3.23 3.43 3.39 3.25 3.12 3.15 3.06 3.08 3.19 3.35 3.30 3.16 3.05 2.95 2.91 3.02 2.85 2.56 2.48 2.51
0.09 0.16 0.22 0.28 0.26 0.25 0.33 0.59 0.67 0.70 0.89 1.06 1.09 1.21 1.35 1.52 1.83 2.24 2.69 2.95 3.09 3.18 3.10 3.26 3.42 3.22 3.36 3.45 3.46 3.51 3.64 3.70 3.70 3.66 3.55 3.49 3.53 3.53 3.68 3.63 3.43 3.23 3.15 3.15 2.96 2.96 2.86 2.87 2.79
0.09 0.10 0.14 0.20 0.22 0.26 0.34 0.54 0.68 0.71 0.94 1.02 1.14 1.12 1.25 1.47 1.80 2.17 2.71 3.03 3.09 3.22 3.23 3.29 3.56 3.49 3.73 3.82 3.61 3.61 3.63 3.71 3.80 3.92 3.94 4.03 4.05 3.99 3.97 3.85 3.71 3.57 3.42 3.31 3.18 3.16 3.11 2.96 2.82
0.08 0.09 0.14 0.17 0.21 0.29 0.40 0.58 0.75 0.82 1.00 1.08 1.22 1.25 1.49 1.58 1.75 2.17 2.65 3.02 3.40 3.45 3.53 3.48 3.56 3.74 3.86 3.98 3.96 4.09 4.01 3.97 4.18 4.38 4.44 4.56 4.60 4.44 4.39 4.28 4.14 3.91 3.65 3.46 3.29 3.18 3.04 2.81 2.71
0.08 0.10 0.18 0.26 0.28 0.38 0.48 0.64 0.83 0.94 0.95 1.15 1.37 1.38 1.82 1.97 1.97 2.20 2.70 3.08 3.42 3.62 3.69 3.80 3.89 3.90 4.01 4.39 4.80 5.13 5.37 5.40 5.32 5.40 5.41 5.26 5.13 5.02 4.84 4.74 4.52 4.19 3.91 3.62 3.38 3.17 2.92 2.68 2.63
0.10 0.12 0.20 0.33 0.34 0.44 0.58 0.96 1.08 1.05 1.07 1.24 1.48 1.54 1.89 2.14 2.26 2.12 2.27 2.68 3.10 3.41 3.62 3.69 3.93 4.25 4.70 5.24 5.66 5.96 6.23 6.33 6.11 5.86 5.74 5.51 5.27 5.10 4.75 4.50 4.40 4.14 3.75 3.49 3.33 3.15 2.93 2.70 2.59
0.10 0.10 0.17 0.24 0.32 0.50 0.55 1.06 1.29 1.25 1.32 1.43 1.53 1.47 1.66 1.75 1.99 2.15 2.17 2.40 2.74 3.03 3.30 3.56 3.83 4.41 5.25 5.91 6.35 6.69 6.79 6.73 6.56 6.31 5.93 5.44 5.06 4.71 4.42 4.15 3.87 3.62 3.32 3.09 2.91 2.82 2.78 2.68 2.51
0.05 0.07 0.13 0.17 0.22 0.38 0.46 0.89 1.24 1.27 1.43 1.57 1.65 1.52 1.57 1.72 1.73 1.83 1.92 2.09 2.46 2.78 3.04 3.38 3.73 4.36 5.05 5.68 6.27 6.67 6.78 6.68 6.44 5.99 5.48 4.94 4.46 4.05 3.71 3.43 3.16 2.92 2.65 2.44 2.27 2.25 2.37 2.42 2.38
0.04 0.08 0.16 0.23 0.34 0.55 0.49 0.75 1.32 1.53 1.66 1.81 1.77 1.82 2.01 1.92 1.76 1.73 1.73 1.80 2.02 2.34 2.61 3.00 3.39 3.91 4.46 4.85 5.37 5.74 5.90 5.81 5.45 4.93 4.34 3.93 3.64 3.34 3.01 2.74 2.50 2.25 2.01 1.87 1.80 1.77 1.82 1.96 2.05
0.06 0.14 0.40 0.50 0.58 0.63 0.47 0.84 1.54 1.76 1.71 1.81 1.86 1.98 2.08 1.95 1.88 1.74 1.70 1.70 1.80 2.00 2.27 2.53 2.76 3.19 3.47 3.79 4.22 4.48 4.49 4.33 4.08 3.82 3.58 3.18 2.78 2.45 2.22 1.98 1.80 1.61 1.53 1.50 1.51 1.51 1.56 1.60 1.67
0.05 0.12 0.43 0.70 0.67 0.65 0.73 1.33 1.91 1.86 1.70 1.64 1.72 1.84 1.86 1.67 1.61 1.61 1.61 1.65 1.77 1.75 1.87 2.04 2.15 2.35 2.51 2.65 2.87 2.93 2.89 2.81 2.80 2.68 2.43 2.17 1.87 1.60 1.47 1.36 1.23 1.17 1.16 1.12 1.17 1.23 1.30 1.35 1.37
0.07 0.11 0.17 0.36 0.44 0.73 1.22 1.77 2.14 1.91 1.82 1.74 1.60 1.47 1.59 1.51 1.40 1.46 1.53 1.57 1.66 1.61 1.58 1.64 1.66 1.66 1.71 1.73 1.82 1.88 1.88 1.88 1.85 1.77 1.63 1.51 1.39 1.22 1.11 1.07 1.02 0.98 0.99 0.99 1.00 0.98 0.98 1.07 1.16
0.08 0.11 0.18 0.35 0.72 1.01 1.38 1.88 2.35 2.30 2.21 2.14 1.89 1.58 1.64 1.59 1.53 1.43 1.36 1.44 1.53 1.46 1.42 1.46 1.49 1.36 1.27 1.22 1.24 1.26 1.32 1.30 1.30 1.28 1.20 1.16 1.14 1.07 0.97 0.86 0.82 0.79 0.78 0.84 0.90 0.89 0.85 0.87 0.89
0.12 0.14 0.21 0.40 0.60 0.99 1.63 2.22 2.19 2.41 2.49 2.30 1.98 1.69 1.68 1.61 1.56 1.54 1.49 1.40 1.37 1.37 1.37 1.30 1.24 1.19 1.13 1.09 1.07 1.02 0.98 0.96 0.95 0.92 0.87 0.85 0.83 0.81 0.76 0.70 0.66 0.63 0.62 0.66 0.75 0.79 0.79 0.80 0.78
0.17 0.19 0.23 0.49 0.58 0.71 1.37 2.28 2.23 2.42 2.51 2.31 2.25 2.05 1.85 1.82 1.68 1.59 1.53 1.43 1.40 1.27 1.22 1.19 1.14 1.04 0.98 0.98 0.95 0.87 0.82 0.82 0.83 0.79 0.72 0.66 0.67 0.69 0.68 0.63 0.58 0.52 0.54 0.61 0.64 0.65 0.63 0.68 0.69

GEFSSGP_prec_meanprecacc_234.txt.gz
Total_Precipitation_Accumulation
0.00 0.01 0.02 0.06 0.10 0.11 0.15 0.20 0.30 0.41 0.46 0.46 0.47 0.59 0.63 0.60 0.95 1.79 1.25 0.75 0.59 0.47 0.30 0.22 0.19 0.17 0.17 0.15 0.17 0.18 0.18 0.17 0.15 0.13 0.12 0.11 0.10 0.10 0.11 0.11 0.12 0.16 0.19 0.18 0.17 0.16 0.16 0.15 0.13
0.01 0.01 0.01 0.04 0.10 0.10 0.12 0.18 0.31 0.45 0.49 0.44 0.45 0.50 0.52 0.58 0.54 0.62 0.64 0.53 0.48 0.43 0.39 0.29 0.25 0.21 0.18 0.17 0.17 0.19 0.18 0.17 0.15 0.13 0.12 0.11 0.11 0.12 0.13 0.14 0.15 0.20 0.23 0.21 0.17 0.15 0.13 0.12 0.13
0.01 0.01 0.02 0.03 0.05 0.07 0.15 0.23 0.32 0.46 0.52 0.49 0.57 0.68 0.74 0.67 0.61 0.58 0.54 0.45 0.40 0.35 0.34 0.35 0.29 0.24 0.22 0.20 0.19 0.21 0.22 0.18 0.16 0.16 0.16 0.16 0.14 0.14 0.17 0.21 0.24 0.25 0.25 0.26 0.24 0.20 0.18 0.16 0.14
0.01 0.01 0.01 0.02 0.03 0.05 0.12 0.25 0.37 0.44 0.53 0.54 0.59 0.86 0.92 0.66 0.63 0.59 0.58 0.44 0.35 0.37 0.35 0.34 0.33 0.30 0.30 0.29 0.25 0.24 0.23 0.21 0.21 0.21 0.21 0.19 0.20 0.20 0.24 0.31 0.36 0.34 0.32 0.34 0.34 0.30 0.24 0.19 0.18
0.01 0.02 0.03 0.02 0.03 0.05 0.11 0.23 0.38 0.47 0.52 0.53 0.57 0.86 1.10 0.93 0.72 0.64 0.53 0.37 0.32 0.40 0.45 0.37 0.40 0.40 0.39 0.38 0.35 0.33 0.30 0.29 0.30 0.29 0.27 0.25 0.25 0.28 0.32 0.39 0.41 0.41 0.40 0.40 0.37 0.30 0.23 0.20 0.21
0.01 0.03 0.06 0.04 0.04 0.08 0.13 0.15 0.31 0.51 0.58 0.61 0.66 1.00 1.45 1.38 0.93 0.65 0.57 0.50 0.44 0.45 0.41 0.41 0.43 0.46 0.46 0.48 0.51 0.49 0.44 0.39 0.38 0.37 0.35 0.32 0.30 0.33 0.38 0.42 0.44 0.44 0.41 0.37 0.33 0.29 0.26 0.26 0.26
0.02 0.04 0.06 0.05 0.06 0.12 0.16 0.19 0.30 0.42 0.54 0.62 0.66 1.09 1.42 1.37 1.12 0.86 0.79 0.67 0.60 0.55 0.54 0.58 0.63 0.65 0.66 0.68 0.68 0.66 0.59 0.52 0.46 0.42 0.36 0.33 0.33 0.36 0.40 0.47 0.51 0.50 0.41 0.36 0.34 0.32 0.29 0.29 0.28
0.02 0.05 0.05 0.04 0.06 0.15 0.20 0.25 0.33 0.36 0.55 0.60 0.65 1.05 1.45 1.49 1.29 1.27 1.24 1.10 0.97 0.92 0.93 0.96 0.95 0.88 0.79 0.74 0.75 0.72 0.66 0.60 0.52 0.43 0.37 0.37 0.41 0.47 0.54 0.50 0.53 0.53 0.49 0.44 0.43 0.38 0.33 0.32 0.31
0.02 0.04 0.04 0.03 0.07 0.15 0.22 0.31 0.35 0.39 0.52 0.75 0.76 0.91 1.26 1.42 1.41 1.50 1.55 1.43 1.50 1.52 1.49 1.34 1.27 1.10 1.10 1.01 0.79 0.79 0.75 0.70 0.61 0.55 0.49 0.51 0.62 0.79 0.86 0.70 0.73 0.68 0.63 0.60 0.60 0.55 0.51 0.46 0.41
0.02 0.03 0.05 0.04 0.06 0.13 0.21 0.30 0.33 0.44 0.57 0.88 0.96 1.04 1.27 1.47 1.73 1.81 1.70 1.64 1.76 1.98 1.87 1.58 1.55 1.52 1.37 1.19 1.11 1.06 0.93 0.90 0.81 0.90 0.80 0.87 1.18 1.29 1.14 1.12 1.02 1.01 0.96 0.85 0.84 0.80 0.67 0.60 0.61
0.01 0.04 0.05 0.08 0.11 0.19 0.26 0.34 0.38 0.48 0.77 1.01 1.20 1.41 1.52 1.73 1.91 2.05 2.05 1.96 2.00 1.99 1.78 1.75 1.87 1.78 1.73 1.70 1.64 1.47 1.40 1.33 1.19 1.29 1.27 1.35 1.36 1.30 1.33 1.45 1.38 1.31 1.25 1.28 1.30 1.09 0.91 0.95 1.01
0.02 0.05 0.08 0.13 0.18 0.25 0.34 0.44 0.55 0.58 0.80 1.09 1.24 1.56 1.85 2.10 2.16 2.27 2.41 2.26 2.34 2.22 1.98 1.89 1.83 1.89 2.01 1.95 1.92 1.93 1.89 1.85 1.74 1.70 1.52 1.66 1.74 1.78 1.78 1.91 1.90 1.91 1.92 1.92 1.81 1.62 1.47 1.34 1.30
0.03 0.04 0.09 0.19 0.23 0.29 0.40 0.53 0.59 0.68 0.78 0.94 1.16 1.40 1.51 1.79 2.15 2.66 2.69 2.80 2.90 2.78 2.50 2.25 2.22 2.16 2.16 2.25 2.28 2.05 2.14 2.15 2.28 2.23 1.98 2.03 2.08 2.13 2.31 2.31 2.39 2.35 2.51 2.44 2.24 1.99 1.89 1.74 1.47
0.05 0.07 0.09 0.17 0.24 0.35 0.45 0.55 0.56 0.74 0.91 0.93 1.04 1.20 1.48 1.63 1.83 2.34 2.78 2.96 3.05 3.10 2.89 2.61 2.44 2.40 2.33 2.50 2.67 2.55 2.38 2.42 2.45 2.53 2.40 2.40 2.45 2.52 2.60 2.63 2.69 2.57 2.58 2.62 2.52 2.24 2.11 1.96 1.73
0.05 0.11 0.17 0.20 0.22 0.28 0.37 0.57 0.59 0.68 0.94 1.13 1.14 1.23 1.49 1.84 2.03 2.45 2.84 3.15 3.39 3.31 3.00 2.94 2.71 2.81 2.94 3.16 3.08 3.07 3.01 2.95 2.86 2.79 2.83 2.77 2.79 2.86 2.86 3.03 3.07 2.94 2.88 2.84 2.77 2.62 2.37 2.22 2.11
0.08 0.17 0.27 0.27 0.24 0.21 0.34 0.65 0.72 0.72 0.96 1.12 1.30 1.44 1.58 1.84 2.13 2.49 2.77 2.97 3.27 3.29 3.22 3.30 3.09 3.08 3.25 3.27 3.21 3.26 3.46 3.41 3.28 3.15 3.20 3.10 3.14 3.26 3.41 3.34 3.20 3.11 3.03 3.02 3.14 2.95 2.62 2.51 2.55
0.10 0.16 0.23 0.28 0.27 0.27 0.35 0.61 0.69 0.72 0.93 1.08 1.16 1.32 1.46 1.56 1.85 2.26 2.71 2.96 3.12 3.21 3.13 3.30 3.46 3.25 3.39 3.47 3.50 3.57 3.71 3.76 3.74 3.70 3.60 3.54 3.59 3.60 3.75 3.69 3.50 3.31 3.23 3.23 3.03 3.02 2.91 2.90 2.83
0.10 0.10 0.15 0.20 0.23 0.27 0.35 0.55 0.70 0.73 0.97 1.04 1.22 1.20 1.32 1.51 1.81 2.18 2.72 3.04 3.11 3.25 3.28 3.34 3.61 3.54 3.78 3.86 3.66 3.71 3.74 3.78 3.86 3.98 4.01 4.09 4.13 4.06 4.04 3.92 3.79 3.66 3.50 3.38 3.25 3.22 3.17 3.01 2.87
0.08 0.09 0.15 0.17 0.21 0.30 0.41 0.60 0.77 0.84 1.02 1.10 1.26 1.31 1.54 1.62 1.77 2.18 2.65 3.03 3.41 3.48 3.58 3.55 3.62 3.79 3.91 4.03 4.02 4.17 4.10 4.02 4.22 4.43 4.49 4.62 4.68 4.53 4.48 4.35 4.22 4.00 3.73 3.54 3.37 3.25 3.10 2.86 2.76
0.08 0.10 0.19 0.27 0.29 0.38 0.49 0.66 0.87 0.99 0.97 1.16 1.39 1.42 1.87 2.00 1.99 2.21 2.70 3.09 3.43 3.65 3.75 3.87 3.96 3.95 4.06 4.45 4.87 5.19 5.44 5.45 5.37 5.45 5.47 5.32 5.19 5.10 4.96 4.86 4.60 4.27 4.00 3.70 3.45 3.24 2.97 2.74 2.69
0.10 0.13 0.21 0.34 0.35 0.45 0.60 0.98 1.11 1.08 1.09 1.25 1.50 1.58 1.94 2.16 2.27 2.13 2.28 2.69 3.11 3.44 3.66 3.75 3.99 4.31 4.76 5.31 5.73 6.03 6.31 6.40 6.18 5.94 5.81 5.55 5.31 5.16 4.85 4.61 4.50 4.22 3.82 3.56 3.39 3.20 2.98 2.76 2.64
0.11 0.11 0.18 0.25 0.33 0.52 0.57 1.09 1.31 1.27 1.34 1.45 1.55 1.51 1.72 1.78 2.01 2.16 2.19 2.41 2.76 3.05 3.34 3.61 3.89 4.46 5.33 5.98 6.41 6.76 6.87 6.79 6.62 6.38 6.00 5.50 5.11 4.77 4.49 4.23 3.95 3.70 3.38 3.15 2.96 2.88 2.84 2.74 2.56
0.06 0.07 0.13 0.18 0.24 0.39 0.47 0.91 1.27 1.29 1.45 1.59 1.67 1.56 1.62 1.76 1.76 1.85 1.94 2.11 2.50 2.83 3.09 3.44 3.78 4.43 5.11 5.73 6.31 6.73 6.84 6.75 6.51 6.05 5.53 4.99 4.51 4.09 3.76 3.50 3.25 3.00 2.71 2.50 2.32 2.30 2.42 2.48 2.43
0.04 0.09 0.17 0.24 0.35 0.57 0.50 0.78 1.37 1.56 1.70 1.84 1.79 1.86 2.05 1.98 1.82 1.77 1.76 1.84 2.07 2.39 2.67 3.06 3.45 3.97 4.52 4.92 5.42 5.80 5.97 5.87 5.50 4.99 4.39 3.97 3.68 3.39 3.06 2.79 2.55 2.30 2.06 1.91 1.84 1.81 1.87 2.01 2.10
0.06 0.15 0.42 0.52 0.60 0.65 0.48 0.86 1.58 1.78 1.74 1.86 1.93 2.03 2.14 2.04 1.94 1.80 1.74 1.73 1.85 2.06 2.33 2.59 2.83 3.25 3.55 3.87 4.30 4.56 4.56 4.40 4.13 3.87 3.64 3.23 2.83 2.50 2.27 2.03 1.83 1.64 1.56 1.53 1.54 1.55 1.59 1.63 1.70
0.06 0.13 0.43 0.71 0.69 0.67 0.75 1.36 1.95 1.90 1.74 1.69 1.79 1.91 1.94 1.75 1.69 1.68 1.65 1.68 1.80 1.78 1.91 2.10 2.21 2.40 2.57 2.73 2.94 2.98 2.95 2.89 2.85 2.73 2.48 2.22 1.92 1.64 1.51 1.42 1.28 1.21 1.19 1.15 1.19 1.26 1.33 1.38 1.40
0.07 0.11 0.17 0.36 0.45 0.74 1.23 1.79 2.17 1.95 1.86 1.80 1.67 1.54 1.66 1.59 1.49 1.53 1.59 1.63 1.71 1.66 1.62 1.69 1.72 1.71 1.78 1.82 1.92 1.97 1.94 1.93 1.91 1.82 1.68 1.54 1.43 1.26 1.15 1.12 1.08 1.03 1.03 1.02 1.03 1.01 1.01 1.10 1.19
0.08 0.11 0.18 0.36 0.73 1.02 1.39 1.90 2.37 2.34 2.27 2.21 1.95 1.63 1.69 1.65 1.59 1.50 1.45 1.53 1.60 1.52 1.47 1.50 1.53 1.45 1.41 1.36 1.35 1.35 1.38 1.36 1.34 1.31 1.22 1.18 1.16 1.09 0.99 0.90 0.87 0.83 0.80 0.85 0.93 0.92 0.88 0.90 0.93
0.12 0.15 0.21 0.40 0.60 1.00 1.64 2.24 2.22 2.45 2.55 2.37 2.06 1.74 1.73 1.65 1.61 1.61 1.56 1.46 1.42 1.41 1.41 1.33 1.28 1.25 1.20 1.14 1.11 1.06 1.01 0.99 0.97 0.93 0.89 0.87 0.85 0.83 0.78 0.72 0.69 0.67 0.65 0.69 0.77 0.82 0.82 0.83 0.82
0.17 0.19 0.23 0.51 0.60 0.72 1.38 2.30 2.26 2.45 2.56 2.37 2.30 2.08 1.88 1.86 1.73 1.63 1.58 1.48 1.44 1.31 1.25 1.22 1.18 1.09 1.01 1.00 0.97 0.89 0.84 0.83 0.86 0.82 0.74 0.69 0.70 0.72 0.70 0.65 0.61 0.56 0.57 0.64 0.67 0.68 0.66 0.71 0.73

GEFSSGP_prec_meanprecacc_240.txt.gz
Total_Precipitation_Accumulation
0.01 0.01 0.02 0.09 0.14 0.15 0.16 0.22 0.32 0.42 0.47 0.47 0.48 0.59 0.64 0.61 0.98 1.87 1.30 0.77 0.61 0.48 0.32 0.23 0.20 0.18 0.18 0.16 0.18 0.19 0.19 0.20 0.18 0.15 0.13 0.12 0.10 0.11 0.11 0.11 0.13 0.17 0.19 0.18 0.17 0.17 0.16 0.15 0.13
0.01 0.01 0.02 0.07 0.13 0.12 0.14 0.20 0.34 0.47 0.50 0.45 0.46 0.50 0.53 0.58 0.55 0.64 0.65 0.54 0.49 0.45 0.42 0.31 0.27 0.22 0.19 0.18 0.18 0.21 0.20 0.18 0.16 0.15 0.13 0.12 0.12 0.12 0.13 0.14 0.16 0.21 0.23 0.22 0.18 0.15 0.13 0.13 0.13
0.01 0.02 0.03 0.04 0.07 0.09 0.18 0.26 0.35 0.47 0.52 0.49 0.57 0.68 0.75 0.68 0.63 0.60 0.55 0.46 0.41 0.38 0.38 0.37 0.30 0.25 0.24 0.21 0.22 0.24 0.24 0.20 0.18 0.18 0.18 0.18 0.16 0.15 0.18 0.22 0.25 0.26 0.27 0.27 0.25 0.20 0.18 0.16 0.15
0.01 0.01 0.02 0.03 0.05 0.05 0.13 0.26 0.38 0.45 0.54 0.54 0.59 0.87 0.93 0.67 0.65 0.60 0.58 0.44 0.36 0.40 0.38 0.36 0.34 0.31 0.32 0.31 0.28 0.27 0.26 0.23 0.23 0.23 0.23 0.22 0.22 0.22 0.25 0.32 0.37 0.36 0.33 0.36 0.35 0.31 0.25 0.20 0.19
0.01 0.03 0.04 0.03 0.04 0.06 0.12 0.23 0.39 0.47 0.53 0.54 0.58 0.88 1.11 0.94 0.74 0.65 0.53 0.38 0.34 0.45 0.49 0.39 0.41 0.41 0.40 0.40 0.38 0.36 0.32 0.31 0.33 0.32 0.29 0.27 0.28 0.30 0.34 0.41 0.42 0.42 0.41 0.41 0.38 0.31 0.24 0.22 0.22
0.02 0.04 0.07 0.05 0.05 0.09 0.14 0.16 0.31 0.52 0.59 0.61 0.67 1.01 1.48 1.43 0.96 0.66 0.58 0.52 0.47 0.49 0.46 0.45 0.45 0.48 0.48 0.50 0.54 0.52 0.46 0.43 0.42 0.41 0.38 0.34 0.32 0.35 0.40 0.44 0.45 0.45 0.42 0.38 0.35 0.31 0.29 0.28 0.28
0.03 0.05 0.07 0.06 0.07 0.13 0.17 0.19 0.31 0.43 0.55 0.63 0.67 1.11 1.45 1.41 1.14 0.87 0.80 0.70 0.63 0.59 0.58 0.63 0.66 0.67 0.68 0.69 0.70 0.69 0.62 0.56 0.51 0.47 0.40 0.36 0.36 0.38 0.42 0.48 0.52 0.52 0.44 0.38 0.36 0.34 0.32 0.31 0.30
0.03 0.05 0.05 0.05 0.08 0.16 0.20 0.26 0.33 0.37 0.56 0.61 0.67 1.07 1.46 1.50 1.30 1.29 1.27 1.14 1.00 0.96 0.98 1.02 0.99 0.91 0.81 0.76 0.78 0.76 0.69 0.63 0.55 0.46 0.41 0.41 0.44 0.50 0.57 0.52 0.54 0.54 0.51 0.46 0.45 0.40 0.34 0.34 0.33
0.02 0.04 0.06 0.04 0.08 0.16 0.23 0.31 0.35 0.40 0.54 0.77 0.76 0.91 1.27 1.43 1.42 1.52 1.56 1.46 1.53 1.56 1.55 1.42 1.33 1.15 1.15 1.08 0.84 0.84 0.78 0.72 0.63 0.57 0.52 0.54 0.65 0.81 0.88 0.73 0.75 0.70 0.66 0.63 0.62 0.57 0.53 0.48 0.42
0.02 0.04 0.07 0.05 0.08 0.16 0.22 0.30 0.33 0.45 0.60 0.90 0.97 1.04 1.29 1.51 1.75 1.83 1.71 1.65 1.77 2.02 1.94 1.64 1.61 1.58 1.46 1.33 1.23 1.16 0.98 0.94 0.84 0.94 0.83 0.91 1.22 1.32 1.16 1.15 1.04 1.04 0.99 0.88 0.87 0.83 0.70 0.62 0.63
0.02 0.05 0.07 0.10 0.13 0.20 0.26 0.34 0.38 0.49 0.79 1.03 1.21 1.41 1.53 1.77 1.95 2.08 2.07 1.98 2.03 2.02 1.84 1.82 1.92 1.84 1.83 1.86 1.80 1.62 1.50 1.41 1.25 1.36 1.32 1.40 1.42 1.33 1.36 1.49 1.44 1.36 1.29 1.32 1.34 1.14 0.95 0.97 1.03
0.03 0.06 0.09 0.14 0.19 0.26 0.34 0.44 0.56 0.59 0.82 1.11 1.25 1.57 1.86 2.11 2.18 2.31 2.42 2.28 2.36 2.25 2.02 1.95 1.89 1.96 2.11 2.07 2.05 2.07 2.00 1.94 1.83 1.79 1.59 1.73 1.80 1.83 1.83 1.97 1.97 1.98 1.99 1.98 1.87 1.67 1.50 1.36 1.33
0.04 0.05 0.09 0.19 0.24 0.29 0.41 0.54 0.59 0.69 0.79 0.96 1.20 1.44 1.53 1.81 2.19 2.71 2.73 2.82 2.92 2.81 2.54 2.32 2.32 2.25 2.24 2.35 2.37 2.15 2.23 2.23 2.36 2.31 2.03 2.08 2.13 2.18 2.37 2.37 2.47 2.42 2.56 2.48 2.29 2.04 1.92 1.78 1.52
0.06 0.08 0.11 0.18 0.25 0.36 0.45 0.55 0.57 0.76 0.92 0.96 1.07 1.25 1.53 1.67 1.87 2.38 2.84 3.00 3.08 3.12 2.92 2.68 2.54 2.50 2.42 2.58 2.76 2.64 2.45 2.50 2.53 2.62 2.45 2.44 2.50 2.58 2.66 2.70 2.78 2.65 2.65 2.68 2.57 2.29 2.16 2.01 1.78
0.06 0.12 0.19 0.21 0.22 0.29 0.38 0.58 0.61 0.70 0.96 1.16 1.17 1.26 1.53 1.89 2.07 2.48 2.88 3.22 3.45 3.34 3.04 3.01 2.80 2.91 3.04 3.25 3.18 3.16 3.10 3.03 2.94 2.87 2.92 2.83 2.84 2.93 2.93 3.10 3.15 3.01 2.94 2.90 2.83 2.68 2.43 2.27 2.16
0.10 0.20 0.31 0.29 0.25 0.21 0.35 0.68 0.74 0.74 0.99 1.15 1.33 1.49 1.63 1.91 2.17 2.53 2.81 2.99 3.31 3.33 3.26 3.36 3.16 3.15 3.33 3.38 3.32 3.34 3.55 3.52 3.37 3.23 3.27 3.18 3.21 3.33 3.49 3.43 3.27 3.19 3.10 3.09 3.22 3.03 2.70 2.59 2.62
0.12 0.19 0.26 0.31 0.29 0.27 0.37 0.65 0.72 0.74 0.95 1.11 1.18 1.35 1.52 1.66 1.92 2.30 2.72 2.98 3.14 3.24 3.17 3.34 3.51 3.32 3.46 3.55 3.59 3.66 3.82 3.89 3.85 3.80 3.69 3.63 3.68 3.69 3.83 3.77 3.59 3.40 3.31 3.31 3.10 3.09 2.99 2.98 2.90
0.11 0.11 0.16 0.22 0.24 0.28 0.37 0.57 0.73 0.75 0.98 1.06 1.23 1.22 1.35 1.57 1.86 2.21 2.73 3.05 3.13 3.28 3.32 3.40 3.68 3.62 3.87 3.95 3.76 3.81 3.85 3.91 4.00 4.09 4.09 4.18 4.21 4.13 4.11 3.99 3.87 3.74 3.58 3.47 3.33 3.30 3.25 3.08 2.94
0.09 0.10 0.16 0.19 0.22 0.30 0.43 0.63 0.82 0.87 1.03 1.11 1.28 1.32 1.55 1.65 1.80 2.20 2.67 3.04 3.44 3.52 3.63 3.61 3.70 3.87 4.00 4.13 4.12 4.25 4.19 4.11 4.31 4.50 4.56 4.68 4.74 4.59 4.53 4.42 4.31 4.08 3.82 3.64 3.47 3.34 3.18 2.94 2.84
0.10 0.12 0.21 0.30 0.30 0.40 0.51 0.68 0.89 1.00 0.98 1.18 1.41 1.44 1.90 2.02 2.02 2.23 2.72 3.11 3.45 3.68 3.79 3.92 4.02 4.02 4.14 4.54 4.96 5.28 5.53 5.53 5.44 5.53 5.56 5.40 5.27 5.18 5.02 4.94 4.69 4.35 4.08 3.78 3.53 3.34 3.08 2.84 2.80
0.13 0.15 0.23 0.36 0.36 0.47 0.61 1.01 1.14 1.10 1.10 1.27 1.51 1.60 1.97 2.19 2.31 2.17 2.30 2.72 3.14 3.47 3.70 3.79 4.04 4.36 4.83 5.40 5.81 6.12 6.39 6.46 6.25 6.02 5.91 5.64 5.41 5.27 4.97 4.73 4.60 4.31 3.89 3.64 3.47 3.27 3.06 2.84 2.73
0.12 0.12 0.18 0.25 0.35 0.55 0.59 1.15 1.36 1.30 1.37 1.48 1.57 1.53 1.75 1.80 2.04 2.18 2.21 2.45 2.80 3.09 3.39 3.68 3.95 4.53 5.41 6.07 6.51 6.85 6.95 6.87 6.70 6.47 6.09 5.59 5.21 4.88 4.61 4.35 4.08 3.82 3.48 3.23 3.02 2.95 2.91 2.81 2.63
0.06 0.08 0.14 0.18 0.25 0.43 0.50 0.98 1.34 1.32 1.50 1.64 1.75 1.59 1.65 1.79 1.78 1.88 1.96 2.14 2.53 2.88 3.15 3.50 3.85 4.51 5.20 5.83 6.41 6.83 6.94 6.85 6.61 6.15 5.64 5.07 4.60 4.19 3.85 3.59 3.34 3.11 2.81 2.58 2.38 2.36 2.49 2.54 2.48
0.04 0.09 0.18 0.25 0.39 0.63 0.53 0.83 1.44 1.60 1.75 1.93 1.89 1.90 2.09 2.03 1.86 1.82 1.79 1.86 2.10 2.45 2.74 3.12 3.53 4.07 4.64 5.04 5.55 5.92 6.09 5.98 5.61 5.09 4.49 4.06 3.75 3.46 3.14 2.86 2.62 2.37 2.13 1.97 1.89 1.86 1.92 2.07 2.16
0.06 0.17 0.48 0.61 0.69 0.72 0.50 0.89 1.63 1.83 1.79 1.94 2.03 2.08 2.19 2.11 2.00 1.88 1.81 1.79 1.91 2.15 2.41 2.67 2.92 3.36 3.68 4.01 4.43 4.68 4.67 4.48 4.21 3.94 3.71 3.31 2.90 2.57 2.34 2.09 1.89 1.69 1.61 1.58 1.59 1.61 1.65 1.69 1.76
0.07 0.14 0.49 0.79 0.77 0.73 0.78 1.41 2.00 1.94 1.77 1.73 1.85 1.96 1.98 1.81 1.75 1.75 1.72 1.74 1.86 1.86 2.01 2.19 2.31 2.52 2.70 2.87 3.07 3.07 3.03 2.97 2.94 2.81 2.55 2.29 1.98 1.69 1.56 1.46 1.32 1.24 1.22 1.19 1.25 1.32 1.39 1.44 1.47
0.08 0.13 0.20 0.39 0.48 0.80 1.29 1.84 2.21 1.97 1.88 1.83 1.71 1.56 1.69 1.65 1.55 1.59 1.65 1.68 1.77 1.73 1.70 1.79 1.82 1.82 1.88 1.92 2.05 2.08 2.03 2.04 2.02 1.93 1.78 1.63 1.51 1.33 1.19 1.16 1.12 1.07 1.08 1.08 1.09 1.08 1.08 1.18 1.28
0.09 0.12 0.19 0.39 0.79 1.09 1.46 1.97 2.43 2.38 2.31 2.26 1.99 1.67 1.73 1.70 1.65 1.58 1.53 1.59 1.65 1.57 1.53 1.56 1.60 1.52 1.48 1.42 1.41 1.41 1.47 1.47 1.46 1.44 1.33 1.26 1.23 1.15 1.04 0.94 0.91 0.87 0.84 0.91 1.00 0.99 0.95 0.98 1.01
0.13 0.15 0.22 0.43 0.65 1.08 1.72 2.32 2.27 2.50 2.59 2.43 2.11 1.78 1.76 1.69 1.67 1.70 1.63 1.52 1.48 1.45 1.44 1.36 1.32 1.29 1.24 1.18 1.16 1.11 1.08 1.07 1.06 1.01 0.95 0.94 0.92 0.90 0.84 0.77 0.73 0.71 0.70 0.75 0.85 0.90 0.89 0.90 0.89
0.17 0.20 0.24 0.54 0.65 0.77 1.46 2.37 2.33 2.54 2.60 2.41 2.34 2.11 1.91 1.89 1.77 1.67 1.62 1.52 1.49 1.35 1.29 1.25 1.20 1.12 1.06 1.05 1.03 0.95 0.90 0.90 0.92 0.88 0.81 0.76 0.77 0.77 0.74 0.70 0.67 0.61 0.64 0.72 0.75 0.76 0.74 0.77 0.77

GEFSSGP_prec_meanprecacc_246.txt.gz
Total_Precipitation_Accumulation
0.01 0.01 0.02 0.10 0.17 0.19 0.18 0.23 0.34 0.45 0.49 0.49 0.51 0.62 0.66 0.63 1.02 1.93 1.37 0.86 0.67 0.51 0.34 0.23 0.22 0.19 0.19 0.17 0.18 0.19 0.19 0.20 0.18 0.15 0.13 0.12 0.11 0.11 0.11 0.12 0.13 0.17 0.20 0.18 0.17 0.17 0.16 0.15 0.14
0.01 0.01 0.02 0.08 0.15 0.15 0.15 0.22 0.37 0.51 0.54 0.48 0.49 0.52 0.56 0.62 0.57 0.68 0.69 0.59 0.52 0.47 0.44 0.31 0.28 0.24 0.20 0.19 0.20 0.22 0.20 0.19 0.16 0.15 0.14 0.13 0.12 0.13 0.14 0.14 0.16 0.21 0.24 0.22 0.18 0.15 0.13 0.13 0.14
0.01 0.02 0.04 0.06 0.09 0.11 0.20 0.29 0.41 0.55 0.59 0.52 0.59 0.70 0.78 0.72 0.67 0.64 0.59 0.50 0.44 0.40 0.39 0.37 0.31 0.27 0.25 0.22 0.23 0.25 0.25 0.21 0.19 0.19 0.19 0.18 0.17 0.16 0.19 0.23 0.26 0.27 0.27 0.27 0.25 0.21 0.19 0.17 0.16
0.01 0.01 0.04 0.05 0.06 0.06 0.15 0.28 0.40 0.50 0.60 0.56 0.60 0.88 0.94 0.70 0.70 0.65 0.63 0.51 0.39 0.43 0.41 0.37 0.35 0.33 0.34 0.33 0.30 0.29 0.27 0.24 0.25 0.25 0.24 0.22 0.22 0.23 0.26 0.33 0.38 0.37 0.34 0.37 0.35 0.32 0.26 0.21 0.20
0.01 0.03 0.05 0.04 0.05 0.07 0.13 0.24 0.40 0.49 0.57 0.55 0.59 0.89 1.13 0.96 0.76 0.69 0.59 0.44 0.37 0.47 0.51 0.40 0.42 0.42 0.42 0.43 0.40 0.38 0.34 0.32 0.34 0.34 0.30 0.28 0.28 0.31 0.34 0.41 0.43 0.43 0.43 0.43 0.40 0.33 0.26 0.23 0.23
0.02 0.04 0.08 0.06 0.05 0.10 0.15 0.17 0.32 0.53 0.61 0.63 0.68 1.03 1.50 1.45 0.99 0.72 0.69 0.57 0.50 0.50 0.48 0.46 0.45 0.49 0.50 0.53 0.56 0.53 0.48 0.44 0.43 0.42 0.39 0.34 0.33 0.35 0.41 0.44 0.45 0.46 0.43 0.40 0.38 0.35 0.32 0.30 0.29
0.03 0.06 0.08 0.07 0.08 0.14 0.18 0.20 0.32 0.44 0.56 0.64 0.68 1.12 1.47 1.44 1.17 0.93 0.86 0.74 0.66 0.60 0.60 0.64 0.68 0.70 0.71 0.72 0.72 0.70 0.63 0.57 0.52 0.47 0.40 0.37 0.37 0.39 0.43 0.49 0.53 0.52 0.45 0.40 0.38 0.37 0.34 0.33 0.32
0.04 0.06 0.06 0.05 0.09 0.18 0.22 0.26 0.34 0.38 0.58 0.62 0.67 1.08 1.49 1.55 1.37 1.35 1.32 1.18 1.03 1.00 1.02 1.05 1.03 0.94 0.84 0.79 0.81 0.78 0.70 0.64 0.55 0.47 0.41 0.42 0.46 0.51 0.59 0.54 0.55 0.55 0.53 0.49 0.47 0.42 0.36 0.36 0.35
0.03 0.05 0.07 0.05 0.09 0.18 0.25 0.32 0.36 0.41 0.55 0.79 0.78 0.92 1.30 1.48 1.51 1.61 1.65 1.52 1.57 1.60 1.60 1.48 1.38 1.19 1.19 1.10 0.88 0.89 0.80 0.73 0.64 0.58 0.53 0.56 0.66 0.82 0.90 0.74 0.76 0.71 0.68 0.66 0.64 0.59 0.55 0.50 0.45
0.02 0.04 0.08 0.06 0.09 0.17 0.24 0.31 0.33 0.46 0.62 0.94 1.00 1.07 1.31 1.54 1.83 1.92 1.79 1.73 1.83 2.08 2.01 1.73 1.70 1.64 1.51 1.38 1.28 1.21 1.02 0.95 0.85 0.95 0.85 0.92 1.23 1.34 1.18 1.17 1.07 1.06 1.02 0.91 0.89 0.86 0.74 0.66 0.65
0.03 0.06 0.08 0.11 0.15 0.21 0.28 0.35 0.39 0.51 0.81 1.06 1.24 1.43 1.55 1.81 2.00 2.13 2.11 2.02 2.05 2.06 1.91 1.98 2.12 1.96 1.91 1.95 1.87 1.67 1.54 1.44 1.28 1.38 1.34 1.42 1.43 1.35 1.37 1.51 1.44 1.37 1.31 1.34 1.37 1.19 0.98 1.00 1.05
0.04 0.07 0.10 0.16 0.21 0.26 0.34 0.45 0.57 0.60 0.84 1.13 1.29 1.61 1.90 2.16 2.27 2.36 2.47 2.33 2.41 2.29 2.08 2.12 2.11 2.10 2.20 2.19 2.17 2.15 2.07 2.00 1.87 1.83 1.63 1.76 1.82 1.85 1.85 1.99 1.98 1.99 2.00 1.99 1.89 1.70 1.53 1.39 1.36
0.04 0.05 0.11 0.22 0.27 0.30 0.42 0.56 0.60 0.70 0.80 0.98 1.25 1.51 1.60 1.88 2.25 2.78 2.81 2.92 3.08 2.93 2.63 2.45 2.53 2.41 2.36 2.48 2.54 2.28 2.35 2.33 2.42 2.37 2.08 2.12 2.16 2.19 2.39 2.40 2.48 2.43 2.57 2.50 2.31 2.07 1.95 1.81 1.55
0.06 0.09 0.12 0.21 0.29 0.37 0.47 0.57 0.58 0.76 0.94 0.98 1.11 1.32 1.61 1.74 1.94 2.45 2.92 3.11 3.28 3.36 3.10 2.79 2.69 2.73 2.62 2.73 2.89 2.73 2.52 2.60 2.62 2.70 2.53 2.49 2.54 2.61 2.69 2.75 2.83 2.67 2.67 2.71 2.61 2.32 2.19 2.04 1.81
0.06 0.13 0.20 0.23 0.25 0.30 0.39 0.60 0.62 0.71 0.98 1.20 1.22 1.31 1.62 1.97 2.15 2.54 2.95 3.30 3.57 3.51 3.18 3.10 2.91 3.08 3.24 3.42 3.31 3.25 3.18 3.13 3.05 3.00 3.04 2.90 2.88 2.96 2.96 3.14 3.21 3.06 2.98 2.94 2.87 2.73 2.48 2.32 2.20
0.10 0.21 0.31 0.31 0.27 0.22 0.36 0.72 0.77 0.78 1.04 1.20 1.37 1.53 1.69 1.98 2.25 2.58 2.87 3.08 3.41 3.44 3.36 3.44 3.25 3.29 3.50 3.50 3.41 3.45 3.64 3.62 3.48 3.35 3.39 3.28 3.31 3.40 3.54 3.46 3.31 3.23 3.15 3.15 3.27 3.07 2.75 2.64 2.67
0.13 0.19 0.26 0.32 0.30 0.28 0.38 0.67 0.74 0.78 1.01 1.16 1.23 1.40 1.59 1.77 2.03 2.38 2.80 3.08 3.25 3.34 3.26 3.43 3.61 3.43 3.59 3.67 3.66 3.74 3.91 4.04 3.97 3.89 3.77 3.71 3.75 3.75 3.88 3.81 3.62 3.44 3.36 3.38 3.16 3.15 3.04 3.03 2.94
0.11 0.12 0.17 0.24 0.26 0.29 0.39 0.60 0.75 0.77 1.02 1.10 1.27 1.26 1.43 1.69 1.96 2.28 2.80 3.15 3.23 3.37 3.39 3.48 3.78 3.73 4.01 4.06 3.84 3.89 3.95 4.08 4.14 4.23 4.20 4.25 4.27 4.18 4.18 4.04 3.91 3.79 3.65 3.55 3.42 3.38 3.31 3.13 2.99
0.10 0.11 0.17 0.22 0.25 0.31 0.44 0.65 0.85 0.90 1.07 1.16 1.32 1.39 1.68 1.81 1.92 2.25 2.72 3.10 3.53 3.60 3.69 3.67 3.76 3.95 4.11 4.26 4.21 4.32 4.28 4.23 4.42 4.58 4.62 4.75 4.82 4.64 4.59 4.48 4.36 4.13 3.87 3.70 3.55 3.40 3.24 2.99 2.89
0.11 0.12 0.23 0.34 0.35 0.41 0.52 0.71 0.92 1.03 1.02 1.24 1.51 1.58 2.07 2.20 2.12 2.29 2.76 3.15 3.52 3.76 3.85 3.99 4.10 4.09 4.22 4.65 5.06 5.35 5.61 5.60 5.51 5.59 5.61 5.45 5.31 5.23 5.08 5.00 4.75 4.40 4.14 3.83 3.59 3.41 3.14 2.89 2.84
0.14 0.16 0.26 0.41 0.39 0.50 0.65 1.06 1.18 1.15 1.15 1.32 1.63 1.75 2.10 2.27 2.36 2.21 2.34 2.76 3.20 3.54 3.76 3.87 4.11 4.43 4.92 5.50 5.93 6.23 6.49 6.54 6.32 6.09 5.97 5.69 5.45 5.32 5.02 4.79 4.66 4.36 3.95 3.69 3.53 3.35 3.14 2.90 2.80
0.13 0.13 0.20 0.28 0.39 0.58 0.62 1.21 1.42 1.36 1.43 1.54 1.68 1.70 1.89 1.89 2.10 2.23 2.26 2.50 2.86 3.16 3.47 3.78 4.08 4.65 5.51 6.15 6.59 6.94 7.01 6.93 6.76 6.53 6.15 5.64 5.26 4.94 4.67 4.43 4.15 3.88 3.54 3.30 3.11 3.04 3.00 2.89 2.70
0.07 0.09 0.15 0.20 0.28 0.45 0.53 1.03 1.40 1.38 1.56 1.71 1.89 1.80 1.77 1.86 1.82 1.92 2.01 2.19 2.58 2.94 3.24 3.61 3.99 4.64 5.31 5.92 6.50 6.91 7.00 6.90 6.68 6.22 5.70 5.13 4.66 4.25 3.91 3.66 3.42 3.19 2.91 2.70 2.50 2.47 2.58 2.62 2.54
0.05 0.10 0.19 0.27 0.43 0.68 0.57 0.88 1.49 1.65 1.81 1.99 1.98 1.99 2.17 2.09 1.91 1.86 1.83 1.91 2.15 2.52 2.84 3.27 3.67 4.19 4.79 5.17 5.67 6.04 6.19 6.06 5.68 5.16 4.55 4.13 3.82 3.52 3.19 2.92 2.69 2.44 2.22 2.07 1.99 1.94 1.99 2.13 2.20
0.07 0.18 0.50 0.64 0.74 0.80 0.56 0.94 1.67 1.87 1.85 2.01 2.09 2.15 2.29 2.22 2.07 1.92 1.85 1.85 1.98 2.24 2.54 2.81 3.05 3.48 3.81 4.14 4.57 4.83 4.81 4.60 4.33 4.05 3.80 3.38 2.98 2.64 2.39 2.15 1.93 1.73 1.65 1.62 1.64 1.66 1.70 1.75 1.82
0.08 0.16 0.52 0.84 0.81 0.78 0.84 1.45 2.04 1.97 1.80 1.78 1.90 2.02 2.07 1.95 1.87 1.80 1.78 1.87 1.94 1.94 2.13 2.31 2.40 2.63 2.84 3.01 3.19 3.20 3.16 3.09 3.05 2.91 2.65 2.35 2.03 1.73 1.60 1.51 1.36 1.28 1.27 1.23 1.31 1.39 1.46 1.50 1.52
0.09 0.15 0.22 0.42 0.52 0.85 1.35 1.89 2.28 2.02 1.92 1.88 1.75 1.62 1.76 1.75 1.66 1.69 1.76 1.84 1.86 1.80 1.79 1.88 1.90 1.91 1.98 2.03 2.14 2.16 2.11 2.11 2.09 2.02 1.87 1.68 1.56 1.37 1.23 1.20 1.15 1.11 1.12 1.12 1.15 1.15 1.14 1.24 1.34
0.10 0.13 0.22 0.42 0.84 1.15 1.52 2.03 2.53 2.46 2.37 2.33 2.05 1.71 1.78 1.78 1.74 1.67 1.62 1.67 1.73 1.64 1.63 1.71 1.74 1.60 1.54 1.48 1.47 1.46 1.52 1.53 1.54 1.50 1.38 1.31 1.27 1.19 1.08 0.98 0.94 0.89 0.87 0.95 1.06 1.06 1.02 1.05 1.08
0.14 0.17 0.26 0.45 0.67 1.11 1.75 2.37 2.34 2.57 2.67 2.51 2.17 1.84 1.83 1.76 1.75 1.76 1.68 1.55 1.53 1.51 1.52 1.44 1.43 1.39 1.32 1.25 1.22 1.17 1.13 1.12 1.11 1.05 1.00 0.99 0.99 0.96 0.89 0.81 0.75 0.73 0.73 0.79 0.90 0.96 0.95 0.97 0.96
0.18 0.22 0.27 0.56 0.67 0.79 1.50 2.41 2.37 2.63 2.74 2.54 2.40 2.16 1.96 1.94 1.84 1.73 1.66 1.55 1.52 1.40 1.36 1.30 1.25 1.19 1.12 1.11 1.11 1.01 0.94 0.94 0.98 0.95 0.88 0.82 0.82 0.80 0.77 0.73 0.70 0.65 0.67 0.76 0.79 0.80 0.80 0.85 0.84